Warning: Javascript must be enabled to use all the features on this page!


Page Loading - Please Wait...

Click to hideNews Bulletins

Streamflow Measurements for the Nation


USGS 11337080 THREEMILE SLOUGH NR RIO VISTA CA


Sacramento County, California
Hydrologic Unit Code 18020163
Latitude  38°06'12", Longitude 121°41'10" NAD83
Gage datum 0 feet above NAVD88
Output formats
HTML table with channel data
HTML table without channel data
Tab-separated data with channel data
Tab-separated data without channel data
Graph of data
Reselect output format
Meas.
Number
  Date       Time Time
Datum
Measurement
Used?
  Who Measuring
Agency
Stream
flow
(ft3/s)
Gage
Height
(ft)
GH
Change
(ft)
Meas.
Duration
(hr)
Meas.
Rated
  Control Flow
Adjust.
Code
 
21912021-02-10 14:32:16PSTYesJEH/EBDUSGS-267006.27 Poor NONE
21902021-02-10 14:26:49PSTYesJEH/EBDUSGS-272006.27 Poor NONE
21892021-02-10 14:21:24PSTYesJEH/EBDUSGS-279006.26 Poor NONE
21882021-02-10 14:16:03PSTYesJEH/EBDUSGS-286006.25 Poor NONE
21872021-02-10 14:10:42PSTYesJEH/EBDUSGS-289006.24 Poor NONE
21862021-02-10 14:05:24PSTYesJEH/EBDUSGS-295006.22 Poor NONE
21852021-02-10 14:00:08PSTYesJEH/EBDUSGS-295006.20 Poor NONE
21842021-02-10 13:55:03PSTYesJEH/EBDUSGS-305006.18 Poor NONE
21662020-12-04 13:59:54PSTYesJEH/EBDUSGS-126004.72 Poor NONE
21652020-12-04 13:52:41PSTYesJEH/EBDUSGS-108004.67 Poor NONE
21642020-12-04 13:45:14PSTYesJEH/EBDUSGS-93204.60 Poor NONE
21832020-12-04 13:38:10PSTYesEBD/JEHUSGS-82604.54 Poor NONE
21632020-12-04 13:37:32PSTYesJEH/EBDUSGS-90404.47 Poor NONE
21822020-12-04 13:24:55PSTYesEBD/JEHUSGS-35504.46 Poor NONE
21622020-12-04 13:24:22PSTYesJEH/EBDUSGS-39804.46 Poor NONE
21812020-12-04 13:16:19PSTYesEBD/JEHUSGS-21304.42 Poor NONE
21612020-12-04 13:15:33PSTYesJEH/EBDUSGS-19904.42 Poor NONE
21802020-12-04 13:06:46PSTYesEBD/JEHUSGS3744.36 Poor NONE
21602020-12-04 13:06:23PSTYesJEH/EBDUSGS5734.36 Poor NONE
21792020-12-04 12:56:53PSTYesEBD/JEHUSGS25604.28 Poor NONE
21592020-12-04 12:56:34PSTYesJEH/EBDUSGS28104.28 Poor NONE
21782020-12-04 12:47:40PSTYesEBD/JEHUSGS40804.24 Poor NONE
21582020-12-04 12:47:21PSTYesJEH/EBDUSGS46704.24 Poor NONE
21772020-12-04 12:38:37PSTYesEBD/JEHUSGS57104.17 Poor NONE
21572020-12-04 12:38:08PSTYesJEH/EBDUSGS64404.17 Poor NONE
21762020-12-04 12:01:25PSTYesEBD/JEHUSGS94604.04 Poor NONE
21562020-12-04 12:01:23PSTYesJEH/EBDUSGS103004.03 Poor NONE
21752020-12-04 11:53:40PSTYesEBD/JEHUSGS98904.03 Poor NONE
21552020-12-04 11:53:03PSTYesJEH/EBDUSGS110004.03 Poor NONE
21742020-12-04 11:45:24PSTYesEBD/JEHUSGS100004.01 Poor NONE
21542020-12-04 11:44:35PSTYesJEH/EBDUSGS109004.03 Poor NONE
21732020-12-04 11:37:05PSTYesEBD/JEHUSGS101004.00 Poor NONE
21532020-12-04 11:36:11PSTYesJEH/EBDUSGS106004.01 Poor NONE
21722020-12-04 11:28:26PSTYesEBD/JEHUSGS94204.01 Poor NONE
21522020-12-04 11:27:47PSTYesJEH/EBDUSGS101004.00 Poor NONE
21712020-12-04 11:19:46PSTYesEBD/JEHUSGS88604.02 Poor NONE
21512020-12-04 11:19:12PSTYesJEH/EBDUSGS94904.02 Poor NONE
21702020-12-04 11:11:12PSTYesEBD/JEHUSGS79804.01 Poor NONE
21502020-12-04 11:10:34PSTYesJEH/EBDUSGS83104.01 Poor NONE
21692020-12-04 11:02:29PSTYesEBD/JEHUSGS68204.04 Poor NONE
21492020-12-04 11:01:47PSTYesJEH/EBDUSGS72804.04 Poor NONE
21682020-12-04 10:53:33PSTYesEBD/JEHUSGS56304.07 Poor NONE
21482020-12-04 10:52:56PSTYesJEH/EBDUSGS59104.07 Poor NONE
21472020-12-04 10:43:06PSTYesJEH/EBDUSGS37604.07 Poor NONE
21672020-12-04 10:42:57PSTYesEBD/JEHUSGS34604.07 Poor NONE
21462020-09-30 11:21:06PSTYesJEH/EBDUSGS-97803.70 Poor NONE
21452020-09-30 11:12:31PSTYesJEH/EBDUSGS-56303.59 Poor NONE
21442020-09-30 11:02:41PSTYesJEH/EBDUSGS-8203.47 Poor NONE
21432020-09-30 10:51:58PSTYesJEH/EBDUSGS42203.31 Poor NONE
21422020-09-30 10:41:58PSTYesJEH/EBDUSGS84603.19 Poor NONE
21412020-09-30 10:32:04PSTYesJEH/EBDUSGS117003.06 Poor NONE
21402020-08-12 13:54:40PSTYesJEH/EBDUSGS84004.28 Poor NONE
21392020-08-12 13:50:13PSTYesJEH/EBDUSGS72304.30 Poor NONE
21382020-08-12 13:45:29PSTYesJEH/EBDUSGS72304.31 Poor NONE
21372020-08-12 13:40:49PSTYesJEH/EBDUSGS59504.33 Poor NONE
21362020-08-12 13:35:57PSTYesJEH/EBDUSGS55904.34 Poor NONE
21352020-08-12 13:30:55PSTYesJEH/EBDUSGS41004.37 Poor NONE
21342020-07-09 11:42:41PSTYesZH,ACUSGS257003.22 Poor NONE
21332020-07-09 11:34:43PSTYesZH,ACUSGS274003.29 Poor NONE
21322020-07-09 11:27:12PSTYesZH,ACUSGS264003.36 Poor NONE
21312020-07-09 11:20:54PSTYesZH,ACUSGS263003.42 Poor NONE
21302020-07-09 11:15:18PSTYesZH,ACUSGS269003.47 Poor NONE
21292020-07-09 11:09:38PSTYesZH,ACUSGS269003.51 Poor NONE
21282020-06-03 13:42:04PSTYesNWS/HRUSGS-285004.89 Poor NONE
21272020-06-03 13:35:19PSTYesNWS/HRUSGS-289004.85 Poor NONE
21262020-06-03 13:29:23PSTYesNWS/HRUSGS-288004.83 Poor NONE
21252020-06-03 13:23:53PSTYesNWS/HRUSGS-291004.81 Poor NONE
21242020-06-03 13:18:24PSTYesNWS/HRUSGS-296004.78 Poor NONE
21232020-06-03 13:12:34PSTYesNWS/HRUSGS-296004.76 Poor NONE
21222020-02-11 11:52:15PSTYesALC, BTGUSGS166003.21 Poor NONE
21212020-02-11 11:47:56PSTYesALC, BTGUSGS170003.20 Poor NONE
21202020-02-11 11:43:54PSTYesALC, BTGUSGS173003.20 Poor NONE
21192020-02-11 11:39:14PSTYesALC, BTGUSGS181003.20 Poor NONE
21182020-02-11 11:35:09PSTYesALC, BTGUSGS183003.19 Poor NONE
21172020-02-11 11:31:10PSTYesALC, BTGUSGS189003.17 Poor NONE
21162019-12-03 12:57:43PSTYesAC, MIUSGS59004.91 Poor NONE
21152019-12-03 12:51:19PSTYesAC, MIUSGS36804.95 Poor NONE
21142019-12-03 12:43:50PSTYesAC, MIUSGS15905.02 Poor NONE
21132019-12-03 12:37:30PSTYesAC, MIUSGS-1205.05 Poor NONE
21122019-12-03 12:31:10PSTYesAC, MIUSGS-18905.09 Poor NONE
21112019-12-03 12:24:44PSTYesAC, MIUSGS-35705.13 Poor NONE
21102019-12-03 12:18:47PSTYesAC, MIUSGS-53405.18 Poor NONE
21092019-12-03 12:12:26PSTYesAC, MIUSGS-66605.21 Poor NONE
21082019-10-01 09:15:07PSTYesHR, ACUSGS213003.87 Poor NONE
21072019-10-01 09:09:42PSTYesHR, ACUSGS216003.91 Poor NONE
21062019-10-01 09:04:39PSTYesHR, ACUSGS214003.95 Poor NONE
21052019-10-01 08:59:18PSTYesHR, ACUSGS213003.99 Poor NONE
21042019-10-01 08:53:54PSTYesHR, ACUSGS204004.03 Poor NONE
21032019-10-01 08:48:29PSTYesHR, ACUSGS202004.07 Poor NONE
21022019-08-08 10:28:43PSTYesAC, MIUSGS-218004.84 Good NONE
21012019-08-08 10:22:37PSTYesAC, MIUSGS-219004.83 Good NONE
21002019-08-08 10:16:36PSTYesAC, MIUSGS-241004.81 Good NONE
20992019-08-08 10:11:10PSTYesAC, MIUSGS-225004.81 Good NONE
20982019-08-08 10:06:11PSTYesAC, MIUSGS-244004.79 Good NONE
20972019-08-08 10:01:16PSTYesAC, MIUSGS-233004.78 Good NONE
20962019-06-12 09:47:03PSTYesAC, JHUSGS-226004.89 Good NONE
20952019-06-12 09:41:09PSTYesAC, JHUSGS-219004.84 Good NONE
20942019-06-12 09:35:10PSTYesAC, JHUSGS-210004.80 Good NONE
20932019-06-12 09:28:52PSTYesAC, JHUSGS-198004.75 Good NONE
20922019-06-12 09:23:09PSTYesAC, JHUSGS-186004.70 Good NONE
20912019-06-12 09:17:45PSTYesAC, JHUSGS-179004.66 Good NONE
20902019-04-16 09:38:13PSTYesAC,JHUSGS-91604.84 Good NONE
20892019-04-16 09:34:06PSTYesAC,JHUSGS-84304.79 Good NONE
20882019-04-16 09:29:49PSTYesAC,JHUSGS-55004.71 Good NONE
20872019-04-16 09:25:37PSTYesAC,JHUSGS-53804.67 Good NONE
20862019-04-16 09:21:20PSTYesAC,JHUSGS-18704.61 Good NONE
20852019-04-16 09:16:37PSTYesAC,JHUSGS-14504.56 Good NONE
20842019-02-15 14:43:43PSTYesJH,ACUSGS238006.31 Fair NONE
20832019-02-15 14:36:49PSTYesJH,ACUSGS224006.36 Fair NONE
20822019-02-15 14:29:57PSTYesJH,ACUSGS227006.43 Fair NONE
20812019-02-15 14:24:27PSTYesJH,ACUSGS214006.46 Fair NONE
20802019-02-15 14:18:58PSTYesJH,ACUSGS203006.50 Fair NONE
20792019-02-15 14:13:32PSTYesJH,ACUSGS187006.54 Fair NONE
20782019-02-12 12:14:23PSTYesAC,MPUSGS187004.76 Good NONE
20772019-02-12 12:08:49PSTYesAC,MPUSGS174004.77 Good NONE
20762019-02-12 12:03:19PSTYesAC,MPUSGS168004.83 Good NONE
20752019-02-12 11:57:23PSTYesAC,MPUSGS165004.86 Good NONE
20742019-02-12 11:51:07PSTYesAC,MPUSGS154004.95 Good NONE
20732019-02-12 11:45:21PSTYesAC,MPUSGS149004.98 Good NONE
20722018-12-06 12:34:14PSTYesJH/ACUSGS-321005.59 Fair NONE
20712018-12-06 12:30:02PSTYesJH/ACUSGS-299005.56 Fair NONE
20702018-12-06 12:25:41PSTYesJH/ACUSGS-313005.53 Fair NONE
20692018-12-06 12:21:13PSTYesJH/ACUSGS-311005.50 Fair NONE
20682018-12-06 12:17:10PSTYesJH/ACUSGS-297005.48 Fair NONE
20672018-12-06 12:13:23PSTYesJH/ACUSGS-307005.44 Fair NONE
20662018-10-11 11:19:10PSTYesAC/MP/HRUSGS194003.65 Fair NONE
20652018-10-11 11:12:21PSTYesAC/MP/HRUSGS206003.65 Fair NONE
20642018-10-11 11:06:02PSTYesAC/MP/HRUSGS197003.65 Fair NONE
20632018-10-11 11:00:53PSTYesAC/MP/HRUSGS205003.66 Fair NONE
20622018-10-11 10:56:22PSTYesAC/MP/HRUSGS206003.67 Fair NONE
20612018-10-11 10:51:36PSTYesAC/MP/HRUSGS213003.68 Fair NONE
20602018-08-17 10:25:09PSTYesNS/AC/HRUSGS-1804.62 Good NONE
20592018-08-17 10:20:04PSTYesNS/AC/HRUSGS-16204.67 Good NONE
20582018-08-17 10:14:48PSTYesNS/AC/HRUSGS-30604.71 Good NONE
20572018-08-17 10:09:18PSTYesNS/AC/HRUSGS-45504.74 Good NONE
20562018-08-17 10:03:56PSTYesNS/AC/HRUSGS-59604.80 Good NONE
20552018-08-17 09:58:38PSTYesNS/AC/HRUSGS-75504.85 Good NONE
20542018-07-31 10:37:39PSTNo
20532018-07-02 12:46:30PSTYesCH/ACUSGS239003.05 Fair NONE
20522018-07-02 12:42:13PSTYesCH/ACUSGS237003.07 Fair NONE
20512018-07-02 12:37:51PSTYesCH/ACUSGS239003.10 Fair NONE
20502018-07-02 12:33:35PSTYesCH/ACUSGS245003.12 Fair NONE
20492018-07-02 12:29:41PSTYesCH/ACUSGS234003.15 Fair NONE
20482018-07-02 12:25:35PSTYesCH/ACUSGS242003.18 Fair NONE
20472018-05-01 11:56:48PSTYesNS/CHUSGS209002.44 Good NONE
20462018-05-01 11:51:57PSTYesNS/CHUSGS220002.43 Good NONE
20452018-05-01 11:47:36PSTYesNS/CHUSGS230002.44 Good NONE
20442018-05-01 11:43:05PSTYesNS/CHUSGS229002.44 Good NONE
20432018-05-01 11:37:44PSTYesNS/CHUSGS232002.46 Good NONE
20422018-05-01 11:32:38PSTYesNS/CHUSGS234002.47 Good NONE
20412018-02-28 14:27:51PSTYesNS/CHUSGS-247005.88 Good NONE
20402018-02-28 14:21:52PSTYesNS/CHUSGS-268005.87 Good NONE
20392018-02-28 14:15:31PSTYesNS/CHUSGS-271005.86 Good NONE
20382018-02-28 14:09:37PSTYesNS/CHUSGS-285005.84 Good NONE
20372018-02-28 14:04:42PSTYesNS/CHUSGS-274005.83 Good NONE
20362018-02-28 14:00:04PSTYesNS/CHUSGS-288005.83 Good NONE
20352017-12-14 14:57:57PSTYesBF, CHUSGS-26005.23 Good NONE
20342017-12-14 14:52:26PSTYesBF, CHUSGS-45105.28 Good NONE
20332017-12-14 14:46:57PSTYesBF, CHUSGS-62605.35 Good NONE
20322017-12-14 14:40:26PSTYesBF, CHUSGS-80505.41 Good NONE
20312017-12-14 14:34:01PSTYesBF, CHUSGS-105005.47 Good NONE
20302017-12-14 14:28:05PSTYesBF, CHUSGS-120005.52 Good NONE
20292017-10-03 12:14:19PSTYesNV/CHUSGS-298004.69 Good NONE
20282017-10-03 12:08:48PSTYesNV/CHUSGS-287004.65 Good NONE
20272017-10-03 12:03:25PSTYesNV/CHUSGS-283004.61 Good NONE
20262017-10-03 11:57:33PSTYesNV/CHUSGS-279004.57 Good NONE
20252017-10-03 11:51:47PSTYesNV/CHUSGS-272004.51 Good NONE
20242017-10-03 11:46:25PSTYesNV/CHUSGS-270004.48 Good NONE
20232017-10-03 11:40:32PSTYesNV/CHUSGS-258004.44 Good NONE
20222017-10-03 11:34:16PSTYesNV/CHUSGS-251004.38 Good NONE
20212017-07-19 10:58:43PSTYesCH/BGUSGS-263004.36 Good NONE
20202017-07-19 10:50:51PSTYesCH/BGUSGS-255004.31 Good NONE
20192017-07-19 10:43:31PSTYesCH/BGUSGS-247004.27 Good NONE
20182017-07-19 10:36:03PSTYesCH/BGUSGS-250004.22 Good NONE
20172017-07-19 10:28:31PSTYesCH/BGUSGS-233004.17 Good NONE
20162017-07-19 10:20:49PSTYesCH/BGUSGS-229004.12 Good NONE
20152017-07-19 10:13:16PSTYesCH/BGUSGS-216004.07 Good NONE
20142017-07-19 10:06:12PSTYesCH/BGUSGS-219004.02 Good NONE
20132017-05-10 11:38:37PSTYesNS/CHUSGS134003.70 Good NONE
20122017-05-10 11:34:27PSTYesNS/CHUSGS147003.65 Good NONE
20112017-05-10 11:31PSTYesNS/CHUSGS153003.64 Good NONE
20102017-05-10 11:26:52PSTYesNS/CHUSGS163003.62 Good NONE
20092017-05-10 11:22:45PSTYesNS/CHUSGS169003.59 Good NONE
20082017-05-10 11:19:21PSTYesNS/CHUSGS177003.57 Good NONE
20072017-02-14 15:34PSTYesBS/WFUSGS-400006.49 Fair NONE
20062017-02-14 15:27:33PSTYesBS/WFUSGS-383006.44 Fair NONE
20052017-02-14 15:20:26PSTYesBS/WFUSGS-375006.41 Fair NONE
20042017-02-14 15:13:19PSTYesBS/WFUSGS-375006.37 Fair NONE
20032017-02-14 15:06:19PSTYesBS/WFUSGS-350006.33 Fair NONE
20022017-02-14 14:59:41PSTYesBS/WFUSGS-344006.28 Fair NONE
20012017-02-09 15:07:12PSTYesBG/CHUSGS-193008.45 Fair NONE
20002017-02-09 15:02:57PSTYesBG/CHUSGS-205008.46 Fair NONE
19992017-02-09 14:58:45PSTYesBG/CHUSGS-221008.48 Fair NONE
19982017-02-09 14:53:45PSTYesBG/CHUSGS-229008.50 Fair NONE
19972017-02-09 14:48:36PSTYesBG/CHUSGS-247008.51 Fair NONE
19962017-02-09 14:44:04PSTYesBG/CHUSGS-261008.51 Fair NONE
19952017-02-09 14:39:23PSTYesBG/CHUSGS-279008.52 Fair NONE
19942017-02-09 14:34:54PSTYesBG/CHUSGS-282008.53 Fair NONE
19932016-12-21 10:55:22PSTYesTM, BFUSGS-275005.94 Good NONE
19922016-12-21 10:48:24PSTYesTM, BFUSGS-291005.94 Good NONE
19912016-12-21 10:39:16PSTYesTM, BFUSGS-297005.94 Good NONE
19902016-12-21 10:29:09PSTYesTM, BFUSGS-319005.91 Good NONE
19892016-12-21 09:44:27PSTYesTM, BFUSGS-350005.74 Good NONE
19882016-12-21 09:34:47PSTYesTM, BFUSGS-361005.69 Good NONE
19872016-12-19 13:55:40PSTYesTM, TVUSGS181003.86 Good NONE
19862016-12-19 13:47:19PSTYesTM, TVUSGS192003.87 Good NONE
19852016-12-12 13:25:36PSTYesND,CHUSGS-341006.13 Good NONE
19842016-12-12 13:14:14PSTYesND,CHUSGS-359006.10 Good NONE
19832016-12-12 13:14:14PSTYesND,CHUSGS-359006.08 Good NONE
19822016-12-12 13:03:29PSTYesND,CHUSGS-366006.00 Good NONE
19812016-12-12 12:57:33PSTYesND,CHUSGS-360005.98 Good NONE
19802016-12-12 12:52:18PSTYesND,CHUSGS-370005.95 Good NONE
19792016-12-12 12:47:20PSTYesND,CHUSGS-373005.90 Good NONE
19782016-12-12 12:42:28PSTYesND,CHUSGS-366005.87 Good NONE
19772016-12-12 12:37:20PSTYesND,CHUSGS-383005.86 Good NONE
19762016-12-12 12:31:46PSTYesND,CHUSGS-374005.81 Good NONE
19752016-09-08 11:03:36PSTYesTV, CHUSGS-16304.79 Fair NONE
19742016-09-08 10:58:53PSTYesTV, CHUSGS-26904.82 Fair NONE
19732016-09-08 10:54:06PSTYesTV, CHUSGS-37104.84 Fair NONE
19722016-09-08 10:49:29PSTYesTV, CHUSGS-43904.86 Fair NONE
19712016-09-08 10:44:46PSTYesTV, CHUSGS-51504.88 Fair NONE
19702016-09-08 10:38:16PSTYesTV, CHUSGS-64604.92 Fair NONE
19692016-07-15 15:09:07PSTYesRJ,CHUSGS-72004.84 Good NONE
19682016-07-15 15:04:37PSTYesRJ,CHUSGS-86004.86 Good NONE
19672016-07-15 15:00:28PSTYesRJ,CHUSGS-87104.86 Good NONE
19662016-07-15 14:55:49PSTYesRJ,CHUSGS-97204.89 Good NONE
19652016-07-15 14:51:44PSTYesRJ,CHUSGS-103004.90 Good NONE
19642016-07-15 14:47:33PSTYesRJ,CHUSGS-116004.91 Good NONE
19632016-03-29 14:59:54PSTYesRJ, CHUSGS160002.77 Good NONE
19622016-03-29 14:50:48PSTYesRJ, CHUSGS166002.77 Good NONE
19612016-03-29 14:42:49PSTYesRJ, CHUSGS178002.77 Good NONE
19602016-03-29 14:35:22PSTYesRJ, CHUSGS183002.78 Good NONE
19592016-03-29 14:28:12PSTYesRJ, CHUSGS190002.79 Good NONE
19582016-03-29 14:22PSTYesRJ, CHUSGS195002.80 Good NONE
19572016-01-12 11:19:58PSTYesCCH,FCUSGS168003.41 Fair NONE
19562016-01-12 11:12:48PSTYesCCH,FCUSGS172003.41 Fair NONE
19552016-01-12 11:06PSTYesCCH,FCUSGS184003.40 Fair NONE
19542016-01-12 10:58:58PSTYesCCH,FCUSGS193003.40 Fair NONE
19532016-01-12 10:51:40PSTYesCCH,FCUSGS199003.42 Fair NONE
19522016-01-12 10:44:19PSTYesCCH,FCUSGS199003.44 Fair NONE
19512015-10-13 12:44:07PSTYesET, CHUSGS-228004.86 Excellent NONE
19502015-10-13 12:36:23PSTYesET, CHUSGS-213004.80 Good NONE
19492015-10-13 12:28:51PSTYesET, CHUSGS-202004.73 Fair NONE
19482015-10-13 12:22:04PSTYesET, CHUSGS-188004.67 Good NONE
19472015-10-13 12:14:52PSTYesET, CHUSGS-172004.60 Excellent NONE
19462015-10-13 12:06:53PSTYesET, CHUSGS-158004.53 Excellent NONE
19452015-08-04 10:53:42PSTYesAD,CHUSGS252003.65 Good NONE
19442015-08-04 10:43:40PSTYesAD,CHUSGS252003.72 Good NONE
19432015-08-04 10:34:12PSTYesAD,CHUSGS244003.78 Fair NONE
19422015-08-04 10:24:22PSTYesAD,CHUSGS245003.90 Good NONE
19412015-08-04 10:15:26PSTYesAD,CHUSGS249003.95 Excellent NONE
19402015-08-04 10:05:04PSTYesAD,CHUSGS23800 Good NONE
19392015-08-04 09:51:27PSTYesAD,CHUSGS227004.12 Fair NONE
19382015-08-04 09:39:58PSTYesAD,CHUSGS218004.24 Excellent NONE
19372015-06-10 10:34:08PSTYesAD,CHUSGS-169005.19 Fair NONE
19362015-06-10 10:23:06PSTYesAD,CHUSGS-179005.23 Poor NONE
19352015-06-10 10:10:52PSTYesAD,CHUSGS-190005.25 Poor NONE
19342015-06-10 10:01:41PSTYesAD,CHUSGS-200005.24 Fair NONE
19332015-06-10 09:52:27PSTYesAD,CHUSGS-208005.24 Poor NONE
19322015-06-10 09:42:07PSTYesAD,CHUSGS-220005.24 Fair NONE
19312015-04-08 13:23PSTYesET/CHUSGS199002.14 UnspecifiedUnspecifedNONE
19302015-04-08 13:15PSTYesET/CHUSGS203002.14 UnspecifiedUnspecifedNONE
19292015-04-08 13:02PSTYesET/CHUSGS215002.16 UnspecifiedUnspecifedNONE
19282015-04-08 12:52PSTYesET/CHUSGS221002.20 UnspecifiedUnspecifedNONE
19272015-04-08 12:37PSTYesET/CHUSGS224002.25 UnspecifiedUnspecifedNONE
19262015-04-08 12:26PSTYesET/CHUSGS223002.31 UnspecifiedUnspecifedNONE
19252015-01-27 15:27PSTYesMVC/KMUSGS241003.16 UnspecifiedUnspecifedNONE
19242015-01-27 15:17PSTYesMVC/KMUSGS246003.22 UnspecifiedUnspecifedNONE
19232015-01-27 15:07PSTYesMVC/KMUSGS244003.32 UnspecifiedUnspecifedNONE
19222015-01-27 14:56PSTYesMVC/KMUSGS252003.40 UnspecifiedUnspecifedNONE
19212015-01-27 14:46PSTYesMVC/KMUSGS251003.49 UnspecifiedUnspecifedNONE
19202015-01-27 14:35PSTYesMVC/KMUSGS266003.58 UnspecifiedUnspecifedNONE
19192014-10-31 14:30PSTYesMVC/KMUSGS227004.16 UnspecifiedUnspecifedNONE
19182014-10-31 14:17PSTYesMVC/KMUSGS209004.24 UnspecifiedUnspecifedNONE
19172014-10-31 14:08PSTYesMVC/KMUSGS209004.33 UnspecifiedUnspecifedNONE
19162014-10-31 13:56PSTYesMVC/KMUSGS194004.42 UnspecifiedUnspecifedNONE
19152014-10-31 13:45PSTYesMVC/KMUSGS174004.53 UnspecifiedUnspecifedNONE
19142014-10-31 13:31PSTYesMVC/KMUSGS156004.62 UnspecifiedUnspecifedNONE
19132014-10-31 13:19PSTYesMVC/KMUSGS110004.76 UnspecifiedUnspecifedNONE
19122014-10-31 13:08PSTYesMVC/KMUSGS86904.86 UnspecifiedUnspecifedNONE
19112014-08-08 13:55PSTYesET/KMUSGS-258005.19 UnspecifiedUnspecifedNONE
19102014-08-08 13:46PSTYesET/KMUSGS-262005.15 UnspecifiedUnspecifedNONE
19092014-08-08 13:35PSTYesET/KMUSGS-281005.11 UnspecifiedUnspecifedNONE
19082014-08-08 13:26PSTYesET/KMUSGS-275005.05 UnspecifiedUnspecifedNONE
19072014-08-08 13:17PSTYesET/KMUSGS-280005.00 UnspecifiedUnspecifedNONE
19062014-08-08 13:10PSTYesET/KMUSGS-278004.96 UnspecifiedUnspecifedNONE
19052014-08-08 12:53PSTYesET/KMUSGS-283004.87 UnspecifiedUnspecifedNONE
19042014-08-08 12:45PSTYesET/KMUSGS-279004.83 UnspecifiedUnspecifedNONE
19032014-08-08 12:37PSTYesET/KMUSGS-282004.79 UnspecifiedUnspecifedNONE
19022014-08-08 12:31PSTYesET/KMUSGS-279004.74 UnspecifiedUnspecifedNONE
19012014-08-08 12:23PSTYesET/KMUSGS-271004.69 UnspecifiedUnspecifedNONE
19002014-08-08 12:13PSTYesET/KMUSGS-273004.66 UnspecifiedUnspecifedNONE
18992014-08-08 12:05PSTYesET/KMUSGS-261004.61 UnspecifiedUnspecifedNONE
18982014-08-08 11:53PSTYesET/KMUSGS-241004.53 UnspecifiedUnspecifedNONE
18972014-08-08 11:41PSTYesET/KMUSGS-225004.46 UnspecifiedUnspecifedNONE
18962014-08-08 11:34PSTYesET/KMUSGS-213004.37 UnspecifiedUnspecifedNONE
18952014-08-08 11:25PSTYesET/KMUSGS-203004.28 UnspecifiedUnspecifedNONE
18942014-08-08 11:19PSTYesET/KMUSGS-191004.25 UnspecifiedUnspecifedNONE
18932014-07-16 15:39PSTYesCH/NVUSGS-204004.55 UnspecifiedUnspecifedNONE
18922014-07-16 15:31PSTYesCH/NVUSGS-188004.45 UnspecifiedUnspecifedNONE
18912014-07-16 15:24PSTYesCH/NVUSGS-167004.36 UnspecifiedUnspecifedNONE
18902014-07-16 15:20PSTYesCH/NVUSGS-155004.30 UnspecifiedUnspecifedNONE
18892014-07-16 15:08PSTYesCH/NVUSGS-122004.18 UnspecifiedUnspecifedNONE
18882014-07-16 15:03PSTYesCH/NVUSGS-83304.06 UnspecifiedUnspecifedNONE
18872014-07-16 14:56PSTYesCH/NVUSGS-53703.97 UnspecifiedUnspecifedNONE
18862014-07-16 14:52PSTYesCH/NVUSGS-23603.88 UnspecifiedUnspecifedNONE
18852014-07-16 14:43PSTYesCH/NVUSGS11703.78 UnspecifiedUnspecifedNONE
18842014-07-16 14:34PSTYesCH/NVUSGS48003.62 UnspecifiedUnspecifedNONE
18832014-07-16 14:22PSTYesCH/NVUSGS87003.46 UnspecifiedUnspecifedNONE
18822014-07-16 14:15PSTYesCH/NVUSGS122003.33 UnspecifiedUnspecifedNONE
18812014-07-16 14:01PSTYesCH/NVUSGS142003.20 UnspecifiedUnspecifedNONE
18802014-07-16 13:46PSTYesCH/NVUSGS175003.11 UnspecifiedUnspecifedNONE
18792014-07-16 13:34PSTYesCH/NVUSGS188003.07 UnspecifiedUnspecifedNONE
18782014-07-16 13:25PSTYesCH/NVUSGS207003.05 UnspecifiedUnspecifedNONE
18772014-07-16 11:38PSTYesYESUSGS25000 UnspecifiedUnspecifedNONE
18762014-07-16 11:30PSTYesYESUSGS25600 UnspecifiedUnspecifedNONE
18752014-07-16 11:03PSTYesYESUSGS25400 UnspecifiedUnspecifedNONE
18742014-07-16 10:57PSTYesYESUSGS25300 UnspecifiedUnspecifedNONE
18732014-07-16 10:46PSTYesYESUSGS26000 UnspecifiedUnspecifedNONE
18722014-07-16 10:40PSTYesYESUSGS26100 UnspecifiedUnspecifedNONE
18712014-07-16 10:32PSTYesYESUSGS26600 UnspecifiedUnspecifedNONE
18702014-07-16 10:28PSTYesYESUSGS25500 UnspecifiedUnspecifedNONE
18692014-07-16 10:20PSTYesYESUSGS25200 UnspecifiedUnspecifedNONE
18682014-07-16 10:17PSTYesYESUSGS25200 UnspecifiedUnspecifedNONE
18672014-07-02 11:55PSTYesYESUSGS24000 Unspecified NONE
18662014-07-02 11:50PSTYesYESUSGS24000 Unspecified NONE
18652014-07-02 11:44PSTYesYESUSGS24200 Unspecified NONE
18642014-07-02 11:39PSTYesYESUSGS23000 Unspecified NONE
18632014-07-02 11:33PSTYesYESUSGS24300 Unspecified NONE
18622014-07-02 11:29PSTYesYESUSGS24500 Unspecified NONE
18612014-07-02 11:23PSTYesYESUSGS24000 Unspecified NONE
18602014-07-02 11:18PSTYesYESUSGS23800 Unspecified NONE
18592011-01-06 13:31PSTYesYESUSGS-20000 Unspecified NONE
18582011-01-06 13:26PSTYesYESUSGS-19800 Unspecified NONE
18572011-01-06 13:22PSTYesYESUSGS-19300 Unspecified NONE
18562011-01-06 13:17PSTYesYESUSGS-18400 Unspecified NONE
18552011-01-06 13:13PSTYesYESUSGS-17800 Unspecified NONE
18542011-01-06 13:08PSTYesYESUSGS-16600 Unspecified NONE
18532010-08-19 15:28PSTYesYESUSGS-3300 Unspecified NONE
18522010-08-19 15:20PSTYesYESUSGS-4590 Unspecified NONE
18512010-08-19 15:14PSTYesYESUSGS-6110 Unspecified NONE
18502010-08-19 15:05PSTYesYESUSGS-7190 Unspecified NONE
18492010-08-19 14:58PSTYesYESUSGS-8450 Unspecified NONE
18482010-08-19 14:49PSTYesYESUSGS-9660 Unspecified NONE
18472010-01-28 13:30PSTYesYESUSGS-31600 Unspecified NONE
18462010-01-28 13:24PSTYesYESUSGS-31300 Unspecified NONE
18452010-01-28 13:18PSTYesYESUSGS-31800 Unspecified NONE
18442010-01-28 13:11PSTYesYESUSGS-33000 Unspecified NONE
18432010-01-28 13:05PSTYesYESUSGS-32700 Unspecified NONE
18422010-01-28 12:58PSTYesYESUSGS-34200 Unspecified NONE
18412010-01-28 12:51PSTYesYESUSGS-35500 Unspecified NONE
18402010-01-28 12:43PSTYesYESUSGS-34700 Unspecified NONE
18392010-01-28 12:32PSTYesYESUSGS-35100 Unspecified NONE
18382010-01-28 12:26PSTYesYESUSGS-35500 Unspecified NONE
18372009-05-13 17:00PSTYesYESUSGS-24300 Unspecified NONE
18362009-05-13 16:56PSTYesYESUSGS-23700 Unspecified NONE
18352009-05-13 16:46PSTYesYESUSGS-22600 Unspecified NONE
18342009-05-13 16:38PSTYesYESUSGS-21300 Unspecified NONE
18332009-05-13 16:31PSTYesYESUSGS-20200 Unspecified NONE
18322009-05-13 16:18PSTYesYESUSGS-18800 Unspecified NONE
18312009-05-13 16:09PSTYesYESUSGS-16600 Unspecified NONE
18302009-05-13 16:01PSTYesYESUSGS-14500 Unspecified NONE
18292009-05-13 15:53PSTYesYESUSGS-12400 Unspecified NONE
18282009-05-13 15:47PSTYesYESUSGS-10600 Unspecified NONE
18272009-05-13 15:41PSTYesYESUSGS-7990 Unspecified NONE
18262009-05-13 15:12PSTYesYESUSGS2810 Unspecified NONE
18252009-05-13 15:04PSTYesYESUSGS5500 Unspecified NONE
18242009-05-13 14:58PSTYesYESUSGS7540 Unspecified NONE
18232009-05-13 14:49PSTYesYESUSGS9840 Unspecified NONE
18222009-05-13 14:43PSTYesYESUSGS11900 Unspecified NONE
18212009-05-13 14:37PSTYesYESUSGS13300 Unspecified NONE
18202009-05-13 14:32PSTYesYESUSGS14600 Unspecified NONE
18192009-05-13 14:25PSTYesYESUSGS15800 Unspecified NONE
18182009-05-13 14:20PSTYesYESUSGS16700 Unspecified NONE
18172009-05-13 14:14PSTYesYESUSGS17500 Unspecified NONE
18162009-05-13 14:09PSTYesYESUSGS18500 Unspecified NONE
18152009-05-13 13:57PSTYesYESUSGS19900 Unspecified NONE
18142009-05-13 13:51PSTYesYESUSGS20000 Unspecified NONE
18132009-05-13 13:43PSTYesYESUSGS21300 Unspecified NONE
18122009-05-13 13:37PSTYesYESUSGS21900 Unspecified NONE
18112009-05-13 13:26PSTYesYESUSGS22400 Unspecified NONE
18102009-05-13 13:21PSTYesYESUSGS22500 Unspecified NONE
18092009-05-13 13:14PSTYesYESUSGS23000 Unspecified NONE
18082009-05-13 13:09PSTYesYESUSGS22700 Unspecified NONE
18072009-05-13 13:03PSTYesYESUSGS23600 Unspecified NONE
18062009-05-13 12:58PSTYesYESUSGS23500 Unspecified NONE
18052009-05-13 12:27PSTYesYESUSGS24200 Unspecified NONE
18042009-05-13 12:22PSTYesYESUSGS24400 Unspecified NONE
18032009-05-13 12:04PSTYesYESUSGS24300 Unspecified NONE
18022009-05-13 11:59PSTYesYESUSGS24500 Unspecified NONE
18012009-05-13 11:41PSTYesYESUSGS25200 Unspecified NONE
18002009-05-13 11:36PSTYesYESUSGS24900 Unspecified NONE
17992009-05-13 11:14PSTYesYESUSGS24900 Unspecified NONE
17982009-05-13 11:09PSTYesYESUSGS24800 Unspecified NONE
17972009-05-13 10:51PSTYesYESUSGS25100 Unspecified NONE
17962009-05-13 10:46PSTYesYESUSGS25000 Unspecified NONE
17952009-05-13 10:29PSTYesYESUSGS25200 Unspecified NONE
17942009-05-13 10:25PSTYesYESUSGS24800 Unspecified NONE
17932009-05-13 10:08PSTYesYESUSGS25500 Unspecified NONE
17922009-05-13 10:04PSTYesYESUSGS25100 Unspecified NONE
17912009-05-13 09:50PSTYesYESUSGS25200 Unspecified NONE
17902009-05-13 09:45PSTYesYESUSGS24700 Unspecified NONE
17892009-05-13 09:22PSTYesYESUSGS24600 Unspecified NONE
17882009-05-13 09:07PSTYesYESUSGS24300 Unspecified NONE
17872009-05-13 09:01PSTYesYESUSGS23700 Unspecified NONE
17862009-05-13 08:57PSTYesYESUSGS23500 Unspecified NONE
17852009-05-13 08:52PSTYesYESUSGS23500 Unspecified NONE
17842009-05-13 08:48PSTYesYESUSGS23500 Unspecified NONE
17832009-05-13 08:43PSTYesYESUSGS22800 Unspecified NONE
17822009-05-13 08:39PSTYesYESUSGS22400 Unspecified NONE
17812009-05-13 08:27PSTYesYESUSGS21500 Unspecified NONE
17802009-05-13 08:21PSTYesYESUSGS21000 Unspecified NONE
17792009-05-13 08:09PSTYesYESUSGS20100 Unspecified NONE
17782009-05-13 08:03PSTYesYESUSGS18900 Unspecified NONE
17772009-05-13 07:50PSTYesYESUSGS18200 Unspecified NONE
17762009-05-13 07:44PSTYesYESUSGS16600 Unspecified NONE
17752009-05-13 07:34PSTYesYESUSGS15100 Unspecified NONE
17742009-01-08 13:11PSTYesBJS/PHKUSGS-197006.05 Unspecified NONE
17732009-01-08 13:06PSTYesBJS/PHKUSGS-205006.06 Unspecified NONE
17722009-01-08 13:00PSTYesBJS/PHKUSGS-218006.08 Unspecified NONE
17712009-01-08 12:55PSTYesBJS/PHKUSGS-227006.07 Unspecified NONE
17702009-01-08 12:49PSTYesBJS/PHKUSGS-238006.07 Unspecified NONE
17692009-01-08 12:44PSTYesBJS/PHKUSGS-239006.07 Unspecified NONE
17682008-08-21 10:54PSTYesPHK/JBDUSGS202003.48 Unspecified NONE
17672008-08-21 10:46PSTYesPHK/JBDUSGS201003.52 Unspecified NONE
17662008-08-21 10:37PSTYesPHK/JBDUSGS202003.58 Unspecified NONE
17652008-08-21 10:27PSTYesPHK/JBDUSGS200003.64 Unspecified NONE
17642008-08-21 10:17PSTYesPHK/JBDUSGS191003.70 Unspecified NONE
17632008-08-21 10:08PSTYesPHK/JBDUSGS176003.77 Unspecified NONE
17622008-08-21 10:00PSTYesPHK/JBDUSGS175003.83 Unspecified NONE
17612008-08-21 09:53PSTYesPHK/JBDUSGS175003.87 Unspecified NONE
17602008-08-21 09:41PSTYesPHK/JBDUSGS158003.95 Unspecified NONE
17592008-08-21 09:35PSTYesPHK/JBDUSGS148004.00 Unspecified NONE
17582008-06-18 18:14PSTYesTMG/PHKUSGS-158004.57 Unspecified NONE
17572008-06-18 18:09PSTYesTMG/PHKUSGS-160004.58 Unspecified NONE
17562008-06-18 18:05PSTYesTMG/PHKUSGS-164004.59 Unspecified NONE
17552008-06-18 18:00PSTYesTMG/PHKUSGS-171004.60 Unspecified NONE
17542008-06-18 17:56PSTYesTMG/PHKUSGS-177004.59 Unspecified NONE
17532008-06-18 17:51PSTYesTMG/PHKUSGS-181004.58 Unspecified NONE
17522008-06-18 17:46PSTYesTMG/PHKUSGS-188004.58 Unspecified NONE
17512008-06-18 17:42PSTYesTMG/PHKUSGS-191004.57 Unspecified NONE
17502008-06-18 17:37PSTYesTMG/PHKUSGS-199004.56 Unspecified NONE
17492008-06-18 17:32PSTYesTMG/PHKUSGS-198004.54 Unspecified NONE
17482008-06-18 17:27PSTYesTMG/PHKUSGS-206004.54 Unspecified NONE
17472008-06-18 17:23PSTYesTMG/PHKUSGS-213004.53 Unspecified NONE
17462008-06-18 17:17PSTYesTMG/PHKUSGS-220004.52 Unspecified NONE
17452008-06-18 17:12PSTYesTMG/PHKUSGS-220004.51 Unspecified NONE
17442008-06-18 17:07PSTYesTMG/PHKUSGS-224004.50 Unspecified NONE
17432008-06-18 17:01PSTYesTMG/PHKUSGS-226004.48 Unspecified NONE
17422008-06-18 16:56PSTYesTMG/PHKUSGS-229004.46 Unspecified NONE
17412008-06-18 16:49PSTYesTMG/PHKUSGS-233004.43 Unspecified NONE
17402008-06-18 16:42PSTYesTMG/PHKUSGS-238004.40 Unspecified NONE
17392008-06-18 16:36PSTYesTMG/PHKUSGS-244004.37 Unspecified NONE
17382008-06-18 16:30PSTYesTMG/PHKUSGS-248004.35 Unspecified NONE
17372008-06-18 16:25PSTYesTMG/PHKUSGS-248004.32 Unspecified NONE
17362008-06-18 16:21PSTYesTMG/PHKUSGS-254004.30 Unspecified NONE
17352008-06-18 16:16PSTYesTMG/PHKUSGS-250004.28 Unspecified NONE
17342008-06-18 16:11PSTYesTMG/PHKUSGS-258004.26 Unspecified NONE
17332008-06-18 16:07PSTYesTMG/PHKUSGS-256004.24 Unspecified NONE
17322008-06-18 16:02PSTYesTMG/PHKUSGS-258004.21 Unspecified NONE
17312008-06-18 15:57PSTYesTMG/PHKUSGS-262004.18 Unspecified NONE
17302008-06-18 15:53PSTYesTMG/PHKUSGS-260004.15 Unspecified NONE
17292008-06-18 15:49PSTYesTMG/PHKUSGS-260004.13 Unspecified NONE
17282008-06-18 15:45PSTYesTMG/PHKUSGS-262004.10 Unspecified NONE
17272008-06-18 15:41PSTYesTMG/PHKUSGS-251004.09 Unspecified NONE
17262008-06-18 15:13PSTYesTMG/PHKUSGS-265003.93 Unspecified NONE
17252008-06-18 14:07PSTYesTMG/PHKUSGS-200003.53 Unspecified NONE
17242008-06-18 13:59PSTYesTMG/PHKUSGS-188003.48 Unspecified NONE
17232008-06-18 13:52PSTYesTMG/PHKUSGS-171003.42 Unspecified NONE
17222008-06-18 13:46PSTYesTMG/PHKUSGS-160003.36 Unspecified NONE
17212008-06-18 13:37PSTYesTMG/PHKUSGS-147003.29 Unspecified NONE
17202008-06-18 13:26PSTYesTMG/PHKUSGS-119003.19 Unspecified NONE
17192008-06-18 13:18PSTYesTMG/PHKUSGS-96903.11 Unspecified NONE
17182008-06-18 13:11PSTYesTMG/PHKUSGS-68703.03 Unspecified NONE
17172008-06-18 13:03PSTYesTMG/PHKUSGS-47502.96 Unspecified NONE
17162008-06-18 12:56PSTYesTMG/PHKUSGS-17502.88 Unspecified NONE
17152008-06-18 12:50PSTYesTMG/PHKUSGS6682.79 Unspecified NONE
17142008-06-18 12:43PSTYesTMG/PHKUSGS31102.71 Unspecified NONE
17132008-06-18 12:36PSTYesTMG/PHKUSGS55802.62 Unspecified NONE
17122008-06-18 12:29PSTYesTMG/PHKUSGS78202.53 Unspecified NONE
17112008-06-18 12:21PSTYesTMG/PHKUSGS102002.44 Unspecified NONE
17102008-06-18 12:13PSTYesTMG/PHKUSGS124002.34 Unspecified NONE
17092008-06-18 12:04PSTYesTMG/PHKUSGS146002.25 Unspecified NONE
17082008-06-18 11:58PSTYesTMG/PHKUSGS156002.20 Unspecified NONE
17072008-06-18 11:53PSTYesTMG/PHKUSGS169002.16 Unspecified NONE
17062008-06-18 11:47PSTYesTMG/PHKUSGS177002.13 Unspecified NONE
17052008-06-18 11:41PSTYesTMG/PHKUSGS185002.10 Unspecified NONE
17042008-06-18 11:35PSTYesTMG/PHKUSGS195002.07 Unspecified NONE
17032008-06-18 11:27PSTYesTMG/PHKUSGS204002.06 Unspecified NONE
17022008-06-18 11:21PSTYesTMG/PHKUSGS210002.06 Unspecified NONE
17012008-06-18 11:16PSTYesTMG/PHKUSGS214002.06 Unspecified NONE
17002008-06-18 11:10PSTYesTMG/PHKUSGS221002.06 Unspecified NONE
16992008-06-18 11:05PSTYesTMG/PHKUSGS222002.07 Unspecified NONE
16982008-06-18 10:59PSTYesTMG/PHKUSGS220002.08 Unspecified NONE
16972008-06-18 10:54PSTYesTMG/PHKUSGS226002.10 Unspecified NONE
16962008-06-18 10:49PSTYesTMG/PHKUSGS232002.11 Unspecified NONE
16952008-06-18 10:45PSTYesTMG/PHKUSGS231002.13 Unspecified NONE
16942008-06-18 10:40PSTYesTMG/PHKUSGS233002.15 Unspecified NONE
16932008-06-18 10:35PSTYesTMG/PHKUSGS236002.18 Unspecified NONE
16922008-06-18 10:31PSTYesTMG/PHKUSGS237002.21 Unspecified NONE
16912008-06-18 10:26PSTYesTMG/PHKUSGS243002.24 Unspecified NONE
16902008-06-18 10:21PSTYesTMG/PHKUSGS237002.27 Unspecified NONE
16892008-06-18 10:16PSTYesTMG/PHKUSGS242002.29 Unspecified NONE
16882008-06-18 10:11PSTYesTMG/PHKUSGS240002.33 Unspecified NONE
16872008-06-18 10:07PSTYesTMG/PHKUSGS240002.37 Unspecified NONE
16862008-06-18 10:02PSTYesTMG/PHKUSGS242002.41 Unspecified NONE
16852008-06-18 09:57PSTYesTMG/PHKUSGS243002.45 Unspecified NONE
16842008-06-18 09:53PSTYesTMG/PHKUSGS241002.47 Unspecified NONE
16832008-06-18 09:48PSTYesTMG/PHKUSGS241002.50 Unspecified NONE
16822008-06-18 09:43PSTYesTMG/PHKUSGS223002.53 Unspecified NONE
16812008-06-18 09:39PSTYesTMG/PHKUSGS247002.57 Unspecified NONE
16802008-06-18 09:33PSTYesTMG/PHKUSGS250002.61 Unspecified NONE
16792008-06-18 09:28PSTYesTMG/PHKUSGS249002.66 Unspecified NONE
16782008-06-18 09:23PSTYesTMG/PHKUSGS243002.70 Unspecified NONE
16772008-06-18 09:18PSTYesTMG/PHKUSGS245002.74 Unspecified NONE
16762008-06-18 09:13PSTYesTMG/PHKUSGS250002.79 Unspecified NONE
16752008-06-18 09:08PSTYesTMG/PHKUSGS247002.84 Unspecified NONE
16742008-06-18 09:04PSTYesTMG/PHKUSGS239002.88 Unspecified NONE
16732008-06-18 08:58PSTYesTMG/PHKUSGS247002.93 Unspecified NONE
16722008-06-18 08:46PSTYesTMG/PHKUSGS253003.03 Unspecified NONE
16712008-06-18 08:42PSTYesTMG/PHKUSGS249003.06 Unspecified NONE
16702008-06-18 08:38PSTYesTMG/PHKUSGS250003.10 Unspecified NONE
16692008-06-18 08:33PSTYesTMG/PHKUSGS248003.14 Unspecified NONE
16682008-06-18 08:29PSTYesTMG/PHKUSGS249003.18 Unspecified NONE
16672008-06-18 08:25PSTYesTMG/PHKUSGS253003.22 Unspecified NONE
16662008-06-18 08:18PSTYesTMG/PHKUSGS243003.27 Unspecified NONE
16652007-11-07 10:26PSTYesPSx/CRBUSGS-192004.11 Unspecified NONE
16642007-11-07 10:17PSTYesPSx/CRBUSGS-183004.04 Unspecified NONE
16632007-11-07 10:10PSTYesPSx/CRBUSGS-168003.97 Unspecified NONE
16622007-11-07 10:04PSTYesPSx/CRBUSGS-160003.92 Unspecified NONE
16612007-11-07 09:57PSTYesPSx/CRBUSGS-147003.85 Unspecified NONE
16602007-11-07 09:51PSTYesPSx/CRBUSGS-131003.77 Unspecified NONE
16592007-11-07 09:44PSTYesPSx/CRBUSGS-112003.71 Unspecified NONE
16582007-11-07 09:35PSTYesPSx/CRBUSGS-81603.60 Unspecified NONE
16572007-11-07 09:29PSTYesPSx/CRBUSGS-61803.53 Unspecified NONE
16562007-08-01 18:41PSTYes???USGS-216005.45 Unspecified NONE
16552007-08-01 18:35PSTYes???USGS-229005.45 Unspecified NONE
16542007-08-01 18:29PSTYes???USGS-232005.43 Unspecified NONE
16532007-08-01 18:24PSTYes???USGS-243005.40 Unspecified NONE
16522007-08-01 18:19PSTYes???USGS-254005.37 Unspecified NONE
16512007-08-01 18:15PSTYes???USGS-256005.38 Unspecified NONE
16502007-08-01 18:10PSTYes???USGS-254005.36 Unspecified NONE
16492007-08-01 18:05PSTYes???USGS-263005.34 Unspecified NONE
16482007-08-01 18:01PSTYes???USGS-264005.33 Unspecified NONE
16472007-08-01 17:56PSTYes???USGS-267005.33 Unspecified NONE
16462007-08-01 17:43PSTYes???USGS-277005.24 Unspecified NONE
16452007-08-01 17:38PSTYes???USGS-281005.23 Unspecified NONE
16442007-08-01 17:32PSTYes???USGS-280005.19 Unspecified NONE
16432007-08-01 17:27PSTYes???USGS-282005.17 Unspecified NONE
16422007-08-01 17:18PSTYes???USGS-279005.11 Unspecified NONE
16412007-08-01 17:13PSTYes???USGS-289005.08 Unspecified NONE
16402007-08-01 17:08PSTYes???USGS-290005.04 Unspecified NONE
16392007-08-01 17:02PSTYes???USGS-294005.02 Unspecified NONE
16382007-08-01 16:57PSTYes???USGS-299005.01 Unspecified NONE
16372007-08-01 16:51PSTYes???USGS-300004.97 Unspecified NONE
16362007-08-01 16:38PSTYes???USGS-293004.89 Unspecified NONE
16352007-08-01 16:34PSTYes???USGS-305004.84 Unspecified NONE
16342007-08-01 16:29PSTYes???USGS-289004.82 Unspecified NONE
16332007-08-01 16:23PSTYes???USGS-309004.81 Unspecified NONE
16322007-08-01 16:10PSTYes???USGS-308004.69 Unspecified NONE
16312007-08-01 16:04PSTYes???USGS-304004.67 Unspecified NONE
16302007-08-01 15:58PSTYes???USGS-304004.65 Unspecified NONE
16292007-08-01 15:52PSTYes???USGS-301004.58 Unspecified NONE
16282007-08-01 15:39PSTYes???USGS-293004.52 Unspecified NONE
16272007-08-01 15:34PSTYes???USGS-286004.48 Unspecified NONE
16262007-08-01 15:29PSTYes???USGS-282004.45 Unspecified NONE
16252007-08-01 15:24PSTYes???USGS-271004.42 Unspecified NONE
16242007-08-01 15:09PSTYes???USGS-263004.30 Unspecified NONE
16232007-08-01 15:04PSTYes???USGS-255004.25 Unspecified NONE
16222007-08-01 14:58PSTYes???USGS-246004.22 Unspecified NONE
16212007-08-01 14:53PSTYes???USGS-241004.16 Unspecified NONE
16202007-08-01 14:47PSTYes???USGS-237004.10 Unspecified NONE
16192007-08-01 14:41PSTYes???USGS-227004.05 Unspecified NONE
16182007-08-01 14:34PSTYes???USGS-214003.96 Unspecified NONE
16172007-08-01 14:28PSTYes???USGS-202003.90 Unspecified NONE
16162007-08-01 14:23PSTYes???USGS-188003.85 Unspecified NONE
16152007-08-01 14:18PSTYes???USGS-174003.79 Unspecified NONE
16142007-08-01 14:13PSTYes???USGS-157003.72 Unspecified NONE
16132007-08-01 14:08PSTYes???USGS-133003.66 Unspecified NONE
16122007-08-01 14:04PSTYes???USGS-117003.59 Unspecified NONE
16112007-08-01 13:58PSTYes???USGS-85403.50 Unspecified NONE
16102007-08-01 13:52PSTYes???USGS-50203.45 Unspecified NONE
16092007-08-01 13:46PSTYes???USGS-24103.36 Unspecified NONE
16082007-08-01 13:41PSTYes???USGS10903.26 Unspecified NONE
16072007-08-01 13:36PSTYes???USGS31603.19 Unspecified NONE
16062007-08-01 13:32PSTYes???USGS51703.13 Unspecified NONE
16052007-08-01 13:27PSTYes???USGS70803.07 Unspecified NONE
16042007-08-01 13:23PSTYes???USGS88101.61 Unspecified NONE
16032007-08-01 10:54PSTYes???USGS250003.24 Unspecified NONE
16022007-08-01 10:50PSTYes???USGS242003.28 Unspecified NONE
16012007-08-01 10:41PSTYes???USGS251003.37 Unspecified NONE
16002007-08-01 10:36PSTYes???USGS247003.40 Unspecified NONE
15992007-08-01 10:29PSTYes???USGS257003.47 Unspecified NONE
15982007-08-01 10:22PSTYes???USGS249003.54 Unspecified NONE
15972007-08-01 09:48PSTYes???USGS262003.84 Unspecified NONE
15962007-08-01 09:43PSTYes???USGS256003.88 Unspecified NONE
15952007-08-01 09:38PSTYes???USGS270003.91 Unspecified NONE
15942007-08-01 09:33PSTYes???USGS249003.95 Unspecified NONE
15932007-03-09 18:03PSTYes???USGS-214003.48 Unspecified NONE
15922007-03-09 17:56PSTYes???USGS-207003.41 Unspecified NONE
15912007-03-09 17:48PSTYes???USGS-204003.39 Unspecified NONE
15902007-03-09 17:41PSTYes???USGS-196003.36 Unspecified NONE
15892007-03-09 17:31PSTYes???USGS-188003.32 Unspecified NONE
15882007-03-09 17:24PSTYes???USGS-181003.27 Unspecified NONE
15872007-03-09 17:17PSTYes???USGS-175003.23 Unspecified NONE
15862007-03-09 17:11PSTYes???USGS-167003.21 Unspecified NONE
15852007-03-09 17:04PSTYes???USGS-162003.16 Unspecified NONE
15842007-03-09 16:56PSTYes???USGS-152003.12 Unspecified NONE
15832007-03-09 16:50PSTYes???USGS-141003.08 Unspecified NONE
15822007-03-09 16:42PSTYes???USGS-127003.01 Unspecified NONE
15812007-03-09 16:35PSTYes???USGS-116002.96 Unspecified NONE
15802007-03-09 16:23PSTYes???USGS-82302.87 Unspecified NONE
15792007-03-09 16:16PSTYes???USGS-64302.80 Unspecified NONE
15782007-03-09 16:09PSTYes???USGS-44202.75 Unspecified NONE
15772007-03-09 16:03PSTYes???USGS-25002.70 Unspecified NONE
15762007-03-09 15:58PSTYes???USGS-9902.66 Unspecified NONE
15752007-03-09 15:48PSTYes???USGS19502.58 Unspecified NONE
15742007-03-09 15:43PSTYes???USGS36002.54 Unspecified NONE
15732007-03-09 15:38PSTYes???USGS48202.51 Unspecified NONE
15722007-03-09 15:33PSTYes???USGS60602.47 Unspecified NONE
15712007-03-09 15:28PSTYes???USGS72802.44 Unspecified NONE
15702007-03-09 15:23PSTYes???USGS85002.41 Unspecified NONE
15692007-03-09 15:18PSTYes???USGS90202.38 Unspecified NONE
15682007-03-09 15:13PSTYes???USGS102002.36 Unspecified NONE
15672007-03-09 15:09PSTYes???USGS104002.34 Unspecified NONE
15662007-03-09 15:04PSTYes???USGS119002.32 Unspecified NONE
15652007-03-09 14:58PSTYes???USGS126002.29 Unspecified NONE
15642007-03-09 14:53PSTYes???USGS138002.27 Unspecified NONE
15632007-03-09 14:47PSTYes???USGS145002.25 Unspecified NONE
15622007-03-09 14:42PSTYes???USGS152002.25 Unspecified NONE
15612007-03-09 14:38PSTYes???USGS153002.24 Unspecified NONE
15602007-03-09 14:33PSTYes???USGS163002.22 Unspecified NONE
15592007-03-09 14:07PSTYes???USGS185002.24 Unspecified NONE
15582007-03-09 14:02PSTYes???USGS197002.25 Unspecified NONE
15572007-03-09 13:53PSTYes???USGS195002.27 Unspecified NONE
15562007-03-09 13:42PSTYes???USGS203002.31 Unspecified NONE
15552007-03-09 13:33PSTYes???USGS206002.35 Unspecified NONE
15542007-03-09 13:25PSTYes???USGS210002.39 Unspecified NONE
15532007-03-09 13:16PSTYes???USGS214002.43 Unspecified NONE
15522007-03-09 13:08PSTYes???USGS221002.47 Unspecified NONE
15512007-03-09 13:00PSTYes???USGS221002.52 Unspecified NONE
15502007-03-09 12:51PSTYes???USGS225002.57 Unspecified NONE
15492007-03-09 12:42PSTYes???USGS222002.62 Unspecified NONE
15482007-03-09 12:32PSTYes???USGS230002.69 Unspecified NONE
15472007-03-09 12:23PSTYes???USGS235002.75 Unspecified NONE
15462007-03-09 12:15PSTYes???USGS236002.81 Unspecified NONE
15452007-03-09 12:07PSTYes???USGS240002.88 Unspecified NONE
15442007-03-09 12:01PSTYes???USGS234002.94 Unspecified NONE
15432005-12-16 17:14PSTYes???USGS4425.30 Unspecified NONE
15422005-12-16 17:09PSTYes???USGS-9715.35 Unspecified NONE
15412005-12-16 17:04PSTYes???USGS-27905.42 Unspecified NONE
15402005-12-16 16:59PSTYes???USGS-41505.47 Unspecified NONE
15392005-12-16 16:54PSTYes???USGS-59505.53 Unspecified NONE
15382005-12-16 16:48PSTYes???USGS-77605.60 Unspecified NONE
15372005-12-16 16:43PSTYes???USGS-92105.63 Unspecified NONE
15362005-12-16 16:37PSTYes???USGS-103005.68 Unspecified NONE
15352005-12-16 16:32PSTYes???USGS-120005.72 Unspecified NONE
15342005-12-16 16:26PSTYes???USGS-138005.82 Unspecified NONE
15332005-12-16 16:20PSTYes???USGS-153005.81 Unspecified NONE
15322005-12-16 16:15PSTYes???USGS-163005.88 Unspecified NONE
15312005-12-16 16:07PSTYes???USGS-180005.91 Unspecified NONE
15302005-12-16 16:01PSTYes???USGS-189005.93 Unspecified NONE
15292005-12-16 15:55PSTYes???USGS-205005.96 Unspecified NONE
15282005-12-16 15:48PSTYes???USGS-218005.98 Unspecified NONE
15272005-12-16 15:42PSTYes???USGS-227006.00 Unspecified NONE
15262005-12-16 15:36PSTYes???USGS-232006.00 Unspecified NONE
15252005-12-16 15:29PSTYes???USGS-242006.00 Unspecified NONE
15242005-12-16 15:22PSTYes???USGS-253006.01 Unspecified NONE
15232005-12-16 15:16PSTYes???USGS-257005.99 Unspecified NONE
15222005-12-16 15:09PSTYes???USGS-268005.98 Unspecified NONE
15212005-12-16 15:02PSTYes???USGS-281005.96 Unspecified NONE
15202005-12-16 14:55PSTYes???USGS-278005.95 Unspecified NONE
15192005-12-16 14:49PSTYes???USGS-282005.92 Unspecified NONE
15182005-12-16 14:27PSTYes???USGS-292005.81 Unspecified NONE
15172005-12-16 14:21PSTYes???USGS-299005.78 Unspecified NONE
15162005-12-16 14:14PSTYes???USGS-299005.73 Unspecified NONE
15152005-12-16 14:08PSTYes???USGS-295005.69 Unspecified NONE
15142005-12-16 14:02PSTYes???USGS-299005.67 Unspecified NONE
15132005-12-16 13:55PSTYes???USGS-298005.64 Unspecified NONE
15122005-12-16 13:24PSTYes???USGS-294005.40 Unspecified NONE
15112005-12-16 13:17PSTYes???USGS-290005.31 Unspecified NONE
15102005-12-16 13:11PSTYes???USGS-294005.32 Unspecified NONE
15092005-12-16 13:05PSTYes???USGS-281005.25 Unspecified NONE
15082005-12-16 12:58PSTYes???USGS-271005.19 Unspecified NONE
15072005-12-16 12:51PSTYes???USGS-263005.17 Unspecified NONE
15062005-12-16 12:43PSTYes???USGS-254005.12 Unspecified NONE
15052005-12-16 12:25PSTYes???USGS-242004.89 Unspecified NONE
15042005-12-16 12:18PSTYes???USGS-226004.89 Unspecified NONE
15032005-12-16 12:11PSTYes???USGS-216004.83 Unspecified NONE
15022005-12-16 12:04PSTYes???USGS-205004.79 Unspecified NONE
15012005-12-16 11:57PSTYes???USGS-198004.72 Unspecified NONE
15002005-12-16 11:50PSTYes???USGS-185004.66 Unspecified NONE
14992005-12-16 11:42PSTYes???USGS-175004.60 Unspecified NONE
14982005-12-16 11:35PSTYes???USGS-160004.53 Unspecified NONE
14972005-12-16 10:17PSTYes???USGS83603.89 Unspecified NONE
14962005-12-16 09:44PSTYes???USGS118003.77 Unspecified NONE
14952005-12-16 09:37PSTYes???USGS120003.76 Unspecified NONE
14942005-12-16 09:30PSTYes???USGS124003.76 Unspecified NONE
14932005-12-16 09:22PSTYes???USGS121003.76 Unspecified NONE
14922005-12-16 09:14PSTYes???USGS122003.77 Unspecified NONE
14912005-12-16 08:59PSTYes???USGS111003.80 Unspecified NONE
14902005-12-16 08:51PSTYes???USGS105003.83 Unspecified NONE
14892005-12-16 08:43PSTYes???USGS97803.85 Unspecified NONE
14882005-12-16 08:37PSTYes???USGS90003.88 Unspecified NONE
14872005-12-16 08:30PSTYes???USGS76203.91 Unspecified NONE
14862005-12-16 08:23PSTYes???USGS67003.94 Unspecified NONE
14852005-12-16 08:16PSTYes???USGS49903.97 Unspecified NONE
14842005-12-16 08:03PSTYes???USGS24604.00 Unspecified NONE
14832005-12-16 07:55PSTYes???USGS5424.07 Unspecified NONE
14822005-12-16 07:46PSTYes???USGS-14504.12 Unspecified NONE
14812005-08-08 16:48PSTYes???USGS-2650010.96 Unspecified NONE
14802005-08-08 16:41PSTYes???USGS-2710010.92 Unspecified NONE
14792005-08-08 16:34PSTYes???USGS-2710010.88 Unspecified NONE
14782005-08-08 16:14PSTYes???USGS-2670010.74 Unspecified NONE
14772005-08-08 16:06PSTYes???USGS-2640010.69 Unspecified NONE
14762005-08-08 15:57PSTYes???USGS-2640010.63 Unspecified NONE
14752005-08-08 15:49PSTYes???USGS-2630010.59 Unspecified NONE
14742005-08-08 15:38PSTYes???USGS-2470010.50 Unspecified NONE
14732005-08-08 15:29PSTYes???USGS-2340010.43 Unspecified NONE
14722005-08-08 15:22PSTYes???USGS-2320010.39 Unspecified NONE
14712005-08-08 15:14PSTYes???USGS-2320010.32 Unspecified NONE
14702005-08-08 15:06PSTYes???USGS-2160010.25 Unspecified NONE
14692005-08-08 14:57PSTYes???USGS-2070010.17 Unspecified NONE
14682005-08-08 14:50PSTYes???USGS-1980010.12 Unspecified NONE
14672005-08-08 14:43PSTYes???USGS-1900010.06 Unspecified NONE
14662005-08-08 14:36PSTYes???USGS-184009.98 Unspecified NONE
14652005-05-16 18:30PSTYes???USGS-28709.26 Unspecified NONE
14642005-05-16 18:26PSTYes???USGS-13409.23 Unspecified NONE
14632005-05-16 17:51PSTYes???USGS75208.97 Unspecified NONE
14622005-05-16 17:46PSTYes???USGS83408.92 Unspecified NONE
14612005-05-16 17:40PSTYes???USGS91808.90 Unspecified NONE
14602005-05-16 17:35PSTYes???USGS102008.88 Unspecified NONE
14592005-05-16 16:57PSTYes???USGS143008.76 Unspecified NONE
14582005-05-16 16:51PSTYes???USGS151008.76 Unspecified NONE
14572005-05-16 16:46PSTYes???USGS154008.76 Unspecified NONE
14562005-05-16 16:41PSTYes???USGS161008.76 Unspecified NONE
14552005-05-16 15:58PSTYes???USGS183008.83 Unspecified NONE
14542005-05-16 15:52PSTYes???USGS187008.85 Unspecified NONE
14532005-05-16 15:46PSTYes???USGS184008.88 Unspecified NONE
14522005-05-16 15:40PSTYes???USGS185008.91 Unspecified NONE
14512005-05-16 14:45PSTYes???USGS198009.19 Unspecified NONE
14502005-05-16 14:39PSTYes???USGS201009.23 Unspecified NONE
14492005-05-16 14:32PSTYes???USGS195009.26 Unspecified NONE
14482005-05-16 14:26PSTYes???USGS205009.30 Unspecified NONE
14472005-05-16 13:47PSTYes???USGS207009.56 Unspecified NONE
14462005-05-16 13:40PSTYes???USGS210009.59 Unspecified NONE
14452005-05-16 13:34PSTYes???USGS207009.64 Unspecified NONE
14442005-05-16 13:29PSTYes???USGS208009.68 Unspecified NONE
14432005-05-16 12:32PSTYes???USGS1880010.09 Unspecified NONE
14422005-05-16 12:26PSTYes???USGS1860010.13 Unspecified NONE
14412005-05-16 12:20PSTYes???USGS1760010.16 Unspecified NONE
14402005-05-16 12:14PSTYes???USGS1820010.21 Unspecified NONE
14392005-05-16 11:33PSTYes???USGS1340010.48 Unspecified NONE
14382005-05-16 11:27PSTYes???USGS1270010.52 Unspecified NONE
14372005-05-16 11:22PSTYes???USGS1190010.55 Unspecified NONE
14362005-05-16 11:17PSTYes???USGS1130010.56 Unspecified NONE
14352005-05-16 10:40PSTYes???USGS454010.80 Unspecified NONE
14342005-05-16 10:35PSTYes???USGS362010.82 Unspecified NONE
14332005-05-16 10:30PSTYes???USGS234010.85 Unspecified NONE
14322005-05-16 10:24PSTYes???USGS104010.86 Unspecified NONE
14312005-05-16 09:24PSTYes???USGS-993011.12 Unspecified NONE
14302005-05-16 09:18PSTYes???USGS-1050011.16 Unspecified NONE
14292005-05-16 09:11PSTYes???USGS-1100011.17 Unspecified NONE
14282005-05-16 09:01PSTYes???USGS-1190011.17 Unspecified NONE
14272005-03-09 16:55PSTYes???USGS841011.04 Unspecified NONE
14262005-03-09 16:47PSTYes???USGS568011.08 Unspecified NONE
14252005-03-09 16:41PSTYes???USGS283011.19 Unspecified NONE
14242005-03-09 16:34PSTYes???USGS51.011.26 Unspecified NONE
14232005-03-09 16:27PSTYes???USGS-285011.33 Unspecified NONE
14222005-03-09 16:19PSTYes???USGS-570011.43 Unspecified NONE
14212005-03-09 16:11PSTYes???USGS-869011.51 Unspecified NONE
14202005-03-09 16:03PSTYes???USGS-1130011.59 Unspecified NONE
14192005-03-09 15:55PSTYes???USGS-1430011.67 Unspecified NONE
14182005-03-09 15:47PSTYes???USGS-1640011.73 Unspecified NONE
14082005-03-09 15:29PSTYes???USGS-2100013.80 Unspecified NONE
14072005-03-09 15:22PSTYes???USGS-2210013.81 Unspecified NONE
14062005-03-09 15:15PSTYes???USGS-2370013.81 Unspecified NONE
14052005-03-09 15:08PSTYes???USGS-2430013.79 Unspecified NONE
14042005-03-09 13:42PSTYes???USGS-3160013.19 Unspecified NONE
14032005-03-09 13:33PSTYes???USGS-3100013.12 Unspecified NONE
14022005-03-09 13:24PSTYes???USGS-3110013.06 Unspecified NONE
14012005-03-09 13:15PSTYes???USGS-3090012.98 Unspecified NONE
14002005-03-09 11:34PSTYes???USGS-2210012.04 Unspecified NONE
13992005-03-09 11:25PSTYes???USGS-2060011.94 Unspecified NONE
13982005-03-09 11:16PSTYes???USGS-1900011.82 Unspecified NONE
13972005-03-09 11:07PSTYes???USGS-1700011.71 Unspecified NONE
13962005-03-09 10:16PSTYes???USGS346011.27 Unspecified NONE
13952005-03-09 10:06PSTYes???USGS718011.22 Unspecified NONE
14172005-03-08 16:08PSTYes???USGS1180011.08 Unspecified NONE
14162005-03-08 16:01PSTYes???USGS905011.14 Unspecified NONE
14152005-03-08 15:45PSTYes???USGS321011.31 Unspecified NONE
14142005-03-08 15:36PSTYes???USGS-61911.41 Unspecified NONE
14132005-03-08 15:29PSTYes???USGS-290011.48 Unspecified NONE
14122005-03-08 15:22PSTYes???USGS-567011.56 Unspecified NONE
14112005-03-08 15:14PSTYes???USGS-830011.64 Unspecified NONE
14102005-03-08 15:03PSTYes???USGS-1240011.76 Unspecified NONE
14092005-03-08 14:54PSTYes???USGS-1490011.84 Unspecified NONE
13942005-03-08 14:47PSTYes???USGS-1740013.89 Unspecified NONE
13932005-03-08 14:18PSTYes???USGS-2350013.94 Unspecified NONE
13922005-03-08 14:12PSTYes???USGS-2470013.93 Unspecified NONE
13912005-03-08 14:03PSTYes???USGS-2650013.93 Unspecified NONE
13902005-03-08 13:25PSTYes???USGS-2980013.63 Unspecified NONE
13892005-03-08 13:17PSTYes???USGS-3100013.56 Unspecified NONE
13882005-03-08 13:05PSTYes???USGS-3120013.48 Unspecified NONE
13872005-03-08 12:54PSTYes???USGS-3220013.40 Unspecified NONE
13862005-03-08 12:43PSTYes???USGS-3170013.31 Unspecified NONE
13852005-03-08 12:35PSTYes???USGS-3130013.24 Unspecified NONE
13842005-03-08 12:27PSTYes???USGS-3120011.81 Unspecified NONE
13832004-03-18 13:03PSTYes???USGS-3380013.47 Unspecified NONE
13822004-03-18 12:57PSTYes???USGS-3350013.43 Unspecified NONE
13812004-03-18 12:25PSTYes???USGS-3470013.21 Unspecified NONE
13802004-03-18 12:19PSTYes???USGS-3420013.16 Unspecified NONE
13792004-03-18 12:12PSTYes???USGS-3430013.11 Unspecified NONE
13782004-03-18 11:54PSTYes???USGS-3260012.97 Unspecified NONE
13772004-03-18 11:47PSTYes???USGS-3230012.92 Unspecified NONE
13762004-03-18 11:39PSTYes???USGS-3140012.87 Unspecified NONE
13752004-03-18 11:31PSTYes???USGS-3120012.80 Unspecified NONE
13742004-03-18 11:21PSTYes???USGS-2940012.73 Unspecified NONE
13732004-03-18 11:11PSTYes???USGS-2790012.67 Unspecified NONE
13722004-03-18 11:02PSTYes???USGS-2770012.59 Unspecified NONE
13712004-03-18 10:53PSTYes???USGS-2610012.52 Unspecified NONE
13702004-03-18 10:45PSTYes???USGS-2550012.46 Unspecified NONE
13692004-03-18 10:36PSTYes???USGS-2480012.39 Unspecified NONE
13682004-03-18 10:23PSTYes???USGS-2220012.26 Unspecified NONE
13672004-03-18 10:15PSTYes???USGS-2040012.18 Unspecified NONE
13662004-03-18 10:06PSTYes???USGS-1770012.08 Unspecified NONE
13652004-03-18 09:59PSTYes???USGS-1580012.00 Unspecified NONE
13642004-03-18 09:49PSTYes???USGS-1200011.87 Unspecified NONE
13632004-03-18 09:40PSTYes???USGS-773011.77 Unspecified NONE
13622004-03-18 09:31PSTYes???USGS-350011.68 Unspecified NONE
13612004-03-18 09:15PSTYes???USGS282011.53 Unspecified NONE
13602004-03-18 09:08PSTYes???USGS476011.49 Unspecified NONE
13592004-03-18 09:02PSTYes???USGS643011.45 Unspecified NONE
13582004-03-18 08:56PSTYes???USGS842011.42 Unspecified NONE
13572004-03-18 08:51PSTYes???USGS954011.40 Unspecified NONE
13562004-03-18 08:45PSTYes???USGS1090011.38 Unspecified NONE
13552004-03-18 08:39PSTYes???USGS1170011.37 Unspecified NONE
13542004-03-18 08:33PSTYes???USGS1280011.37 Unspecified NONE
13532004-03-18 07:30PSTYes???USGS1950011.53 Unspecified NONE
13522004-03-18 07:24PSTYes???USGS1970011.56 Unspecified NONE
13512004-03-18 07:13PSTYes???USGS2050011.61 Unspecified NONE
13502004-03-18 07:06PSTYes???USGS2040011.65 Unspecified NONE
13492004-03-18 06:59PSTYes???USGS2040011.68 Unspecified NONE
13482004-03-18 06:51PSTYes???USGS1980011.74 Unspecified NONE
13472004-03-18 06:44PSTYes???USGS1970011.77 Unspecified NONE
13462004-03-18 06:38PSTYes???USGS1980011.80 Unspecified NONE
13452004-03-18 06:32PSTYes???USGS1920011.85 Unspecified NONE
13442004-03-18 06:25PSTYes???USGS1800011.89 Unspecified NONE
13432003-06-26 18:36PSTYes???USGS955011.62 Unspecified NONE
13422003-06-26 18:28PSTYes???USGS932011.63 Unspecified NONE
13412003-06-26 18:22PSTYes???USGS904011.65 Unspecified NONE
13402003-06-26 18:15PSTYes???USGS794011.67 Unspecified NONE
13392003-06-26 18:08PSTYes???USGS724011.69 Unspecified NONE
13382003-06-26 18:01PSTYes???USGS623011.71 Unspecified NONE
13372003-06-26 17:54PSTYes???USGS526011.73 Unspecified NONE
13362003-06-26 17:46PSTYes???USGS421011.75 Unspecified NONE
13352003-06-26 17:40PSTYes???USGS309011.78 Unspecified NONE
13342003-06-26 17:33PSTYes???USGS176011.80 Unspecified NONE
13332003-06-26 17:27PSTYes???USGS59711.82 Unspecified NONE
13322003-06-26 17:20PSTYes???USGS-66611.84 Unspecified NONE
13312003-06-26 17:13PSTYes???USGS-196011.87 Unspecified NONE
13302003-06-26 17:06PSTYes???USGS-326011.90 Unspecified NONE
13292003-06-26 16:58PSTYes???USGS-459011.93 Unspecified NONE
13282003-06-26 16:51PSTYes???USGS-612011.95 Unspecified NONE
13272003-06-26 16:44PSTYes???USGS-723011.97 Unspecified NONE
13262003-06-26 16:36PSTYes???USGS-853011.99 Unspecified NONE
13252003-06-26 16:28PSTYes???USGS-966012.00 Unspecified NONE
13242003-06-26 16:19PSTYes???USGS1100012.02 Unspecified NONE
13232003-06-26 16:12PSTYes???USGS1190012.03 Unspecified NONE
13222003-06-26 16:02PSTYes???USGS-1400012.03 Unspecified NONE
13212003-06-26 15:52PSTYes???USGS-1490012.03 Unspecified NONE
13202003-06-26 15:45PSTYes???USGS-1610012.02 Unspecified NONE
13192003-06-26 15:38PSTYes???USGS-1670012.02 Unspecified NONE
13182003-06-26 15:33PSTYes???USGS-1750012.01 Unspecified NONE
13172003-06-26 15:16PSTYes???USGS-1900011.97 Unspecified NONE
13162003-06-26 15:03PSTYes???USGS-2090011.93 Unspecified NONE
13152003-06-26 14:57PSTYes???USGS-2060011.90 Unspecified NONE
13142003-06-26 14:52PSTYes???USGS-2240011.88 Unspecified NONE
13132003-06-26 14:43PSTYes???USGS-2200011.84 Unspecified NONE
13122003-06-26 14:37PSTYes???USGS-2300011.81 Unspecified NONE
13112003-06-26 14:32PSTYes???USGS-2270011.79 Unspecified NONE
13102003-06-26 13:55PSTYes???USGS-2500011.59 Unspecified NONE
13092003-06-26 13:49PSTYes???USGS-2440011.55 Unspecified NONE
13082003-06-26 13:40PSTYes???USGS-2510011.50 Unspecified NONE
13072003-06-26 13:34PSTYes???USGS-2410011.46 Unspecified NONE
13062003-06-26 13:26PSTYes???USGS-2480011.41 Unspecified NONE
13052003-06-26 13:20PSTYes???USGS-2480011.38 Unspecified NONE
13042003-06-26 13:14PSTYes???USGS-2440011.35 Unspecified NONE
13032003-06-26 13:05PSTYes???USGS-2370011.30 Unspecified NONE
13022003-06-26 12:55PSTYes???USGS-2380011.24 Unspecified NONE
13012003-06-26 12:47PSTYes???USGS-2320011.20 Unspecified NONE
13002003-06-26 12:35PSTYes???USGS-2210011.13 Unspecified NONE
12992003-06-26 12:21PSTYes???USGS-2060011.04 Unspecified NONE
12982003-06-26 12:13PSTYes???USGS-2040011.01 Unspecified NONE
12972003-06-26 12:06PSTYes???USGS-1840010.96 Unspecified NONE
12962003-06-26 11:58PSTYes???USGS-1790010.91 Unspecified NONE
12952003-06-26 11:48PSTYes???USGS-1640010.85 Unspecified NONE
12942003-06-26 10:44PSTYes???USGS133010.25 Unspecified NONE
12932003-06-26 10:33PSTYes???USGS493010.15 Unspecified NONE
12922003-06-26 10:26PSTYes???USGS690010.09 Unspecified NONE
12912003-06-26 10:17PSTYes???USGS929010.02 Unspecified NONE
12902003-06-26 10:04PSTYes???USGS123009.94 Unspecified NONE
12892003-06-26 09:51PSTYes???USGS145009.88 Unspecified NONE
12882003-06-26 09:44PSTYes???USGS157009.86 Unspecified NONE
12872003-06-26 09:21PSTYes???USGS181009.86 Unspecified NONE
12862003-06-26 09:14PSTYes???USGS190009.86 Unspecified NONE
12852003-06-26 09:07PSTYes???USGS196009.88 Unspecified NONE
12842003-06-26 09:00PSTYes???USGS202009.91 Unspecified NONE
12832003-06-26 08:54PSTYes???USGS204009.94 Unspecified NONE
12822003-06-26 08:45PSTYes???USGS211009.97 Unspecified NONE
12812003-06-26 08:30PSTYes???USGS2190010.06 Unspecified NONE
12802003-06-26 08:24PSTYes???USGS2150010.10 Unspecified NONE
12792003-06-26 08:18PSTYes???USGS2160010.13 Unspecified NONE
12782003-06-26 08:11PSTYes???USGS2180010.17 Unspecified NONE
12772003-06-26 08:04PSTYes???USGS2200010.22 Unspecified NONE
12762003-06-26 07:57PSTYes???USGS2230010.26 Unspecified NONE
12752003-06-26 07:50PSTYes???USGS2250010.30 Unspecified NONE
12742003-06-26 07:43PSTYes???USGS2260010.35 Unspecified NONE
12732003-06-26 07:36PSTYes???USGS2270010.41 Unspecified NONE
12722003-06-26 07:29PSTYes???USGS2240010.48 Unspecified NONE
12712003-06-26 07:22PSTYes???USGS2280010.53 Unspecified NONE
12702003-06-26 07:14PSTYes???USGS2340010.60 Unspecified NONE
12692003-06-26 07:07PSTYes???USGS2340010.66 Unspecified NONE
12682003-06-26 07:00PSTYes???USGS2340010.72 Unspecified NONE
12672003-06-26 06:53PSTYes???USGS2370010.79 Unspecified NONE
12662003-06-26 06:45PSTYes???USGS2360010.86 Unspecified NONE
12652003-06-26 06:38PSTYes???USGS2460010.92 Unspecified NONE
12642003-06-26 06:31PSTYes???USGS2410010.98 Unspecified NONE
12632003-06-26 06:23PSTYes???USGS2410011.05 Unspecified NONE
12622003-06-26 06:16PSTYes???USGS2440011.12 Unspecified NONE
12612003-06-26 06:09PSTYes???USGS2420011.18 Unspecified NONE
12602003-06-26 05:44PSTYes???USGS2430011.40 Unspecified NONE
12592003-06-26 05:37PSTYes???USGS2450011.46 Unspecified NONE
12582003-06-26 05:29PSTYes???USGS2470011.53 Unspecified NONE
12572003-06-26 05:22PSTYes???USGS2500011.60 Unspecified NONE
12562001-09-18 18:42PSTYes???USGS280012.79 Unspecified NONE
12552001-09-18 18:36PSTYes???USGS87.012.85 Unspecified NONE
12542001-09-18 18:31PSTYes???USGS-211012.90 Unspecified NONE
12532001-09-18 18:25PSTYes???USGS-395012.95 Unspecified NONE
12522001-09-18 18:20PSTYes???USGS-627013.00 Unspecified NONE
12512001-09-18 18:12PSTYes???USGS-880013.07 Unspecified NONE
12502001-09-18 18:04PSTYes???USGS-1110013.13 Unspecified NONE
12492001-09-18 17:58PSTYes???USGS-1300013.17 Unspecified NONE
12482001-09-18 17:52PSTYes???USGS-1480013.20 Unspecified NONE
12472001-09-18 17:46PSTYes???USGS-1660013.22 Unspecified NONE
12462001-09-18 17:41PSTYes???USGS-1800013.25 Unspecified NONE
12452001-09-18 17:34PSTYes???USGS-1950013.26 Unspecified NONE
12442001-09-18 17:27PSTYes???USGS-1960013.28 Unspecified NONE
12432001-09-18 17:19PSTYes???USGS-2210013.28 Unspecified NONE
12422001-09-18 17:10PSTYes???USGS-2360013.26 Unspecified NONE
12412001-09-18 16:45PSTYes???USGS-2590013.18 Unspecified NONE
12402001-09-18 16:37PSTYes???USGS-2610013.16 Unspecified NONE
12392001-09-18 16:30PSTYes???USGS-2660013.12 Unspecified NONE
12382001-09-18 16:11PSTYes???USGS-2820013.01 Unspecified NONE
12372001-09-18 16:04PSTYes???USGS-2800012.96 Unspecified NONE
12362001-09-18 15:52PSTYes???USGS-2900012.86 Unspecified NONE
12352001-09-18 15:46PSTYes???USGS-2900012.83 Unspecified NONE
12342001-09-18 15:26PSTYes???USGS-2890012.67 Unspecified NONE
12332001-09-18 14:59PSTYes???USGS-2930012.44 Unspecified NONE
12322001-09-18 14:50PSTYes???USGS-2920012.37 Unspecified NONE
12312001-09-18 14:41PSTYes???USGS-2940012.32 Unspecified NONE
12302001-09-18 14:20PSTYes???USGS-2820012.18 Unspecified NONE
12292001-09-18 14:11PSTYes???USGS-2770012.13 Unspecified NONE
12282001-09-18 14:02PSTYes???USGS-2680012.09 Unspecified NONE
12272001-09-18 13:53PSTYes???USGS-2580012.04 Unspecified NONE
12262001-09-18 13:44PSTYes???USGS-2520011.98 Unspecified NONE
12252001-09-18 13:37PSTYes???USGS-2400011.93 Unspecified NONE
12242001-09-18 13:30PSTYes???USGS-2310011.88 Unspecified NONE
12232001-09-18 13:25PSTYes???USGS-2200011.84 Unspecified NONE
12222001-09-18 13:10PSTYes???USGS-1930011.72 Unspecified NONE
12212001-09-18 13:04PSTYes???USGS-1840011.66 Unspecified NONE
12202001-09-18 12:58PSTYes???USGS-1640011.59 Unspecified NONE
12192001-09-18 12:52PSTYes???USGS-1480011.52 Unspecified NONE
12182001-09-18 12:47PSTYes???USGS-1260011.44 Unspecified NONE
12172001-09-18 12:41PSTYes???USGS-1050011.37 Unspecified NONE
12162001-09-18 12:34PSTYes???USGS-654011.27 Unspecified NONE
12152001-09-18 12:28PSTYes???USGS-397011.20 Unspecified NONE
12142001-09-18 12:22PSTYes???USGS-72011.11 Unspecified NONE
12132001-09-18 12:16PSTYes???USGS150011.03 Unspecified NONE
12122001-09-18 12:09PSTYes???USGS538010.93 Unspecified NONE
12112001-09-18 12:03PSTYes???USGS803010.85 Unspecified NONE
12102001-09-18 11:56PSTYes???USGS1060010.77 Unspecified NONE
12092001-09-18 11:49PSTYes???USGS1270010.70 Unspecified NONE
12082001-09-18 11:41PSTYes???USGS1410010.64 Unspecified NONE
12072001-09-18 11:32PSTYes???USGS1640010.59 Unspecified NONE
12062001-09-18 11:27PSTYes???USGS1710010.57 Unspecified NONE
12052001-09-18 11:22PSTYes???USGS1810010.55 Unspecified NONE
12042001-09-18 11:17PSTYes???USGS1880010.55 Unspecified NONE
12032001-09-18 11:11PSTYes???USGS1940010.56 Unspecified NONE
12022001-09-18 11:05PSTYes???USGS2000010.56 Unspecified NONE
12012001-09-18 10:58PSTYes???USGS2030010.58 Unspecified NONE
12002001-09-18 10:51PSTYes???USGS2070010.61 Unspecified NONE
11992001-09-18 10:20PSTYes???USGS2210010.78 Unspecified NONE
11982001-09-18 10:13PSTYes???USGS2240010.82 Unspecified NONE
11972001-09-18 10:07PSTYes???USGS2270010.85 Unspecified NONE
11962001-09-18 10:00PSTYes???USGS2250010.91 Unspecified NONE
11952001-09-18 09:53PSTYes???USGS2280010.97 Unspecified NONE
11942001-09-18 09:45PSTYes???USGS2320011.02 Unspecified NONE
11932001-09-18 09:36PSTYes???USGS2330011.09 Unspecified NONE
11922001-09-18 09:27PSTYes???USGS2350011.16 Unspecified NONE
11912001-09-18 09:16PSTYes???USGS2410011.26 Unspecified NONE
11902001-09-18 09:06PSTYes???USGS2360011.33 Unspecified NONE
11892001-09-18 08:57PSTYes???USGS2450011.41 Unspecified NONE
11882001-02-09 12:47PSTYes???USGS-2400011.91 Unspecified NONE
11872001-02-09 12:39PSTYes???USGS-2260011.83 Unspecified NONE
11862001-02-09 12:31PSTYes???USGS-2070011.73 Unspecified NONE
11852001-02-09 12:25PSTYes???USGS-1920011.66 Unspecified NONE
11842001-02-09 12:10PSTYes???USGS-1360011.48 Unspecified NONE
11832001-02-09 11:54PSTYes???USGS-778011.30 Unspecified NONE
11822001-02-09 11:47PSTYes???USGS-310011.20 Unspecified NONE
11812001-02-09 11:41PSTYes???USGS-135011.11 Unspecified NONE
11802001-02-09 11:35PSTYes???USGS211011.01 Unspecified NONE
11792001-02-09 11:30PSTYes???USGS412010.95 Unspecified NONE
11782001-02-09 11:25PSTYes???USGS649010.89 Unspecified NONE
11772001-02-09 11:21PSTYes???USGS734010.84 Unspecified NONE
11762001-02-09 11:16PSTYes???USGS1060010.79 Unspecified NONE
11752001-02-09 11:11PSTYes???USGS1160010.74 Unspecified NONE
11742001-02-09 11:06PSTYes???USGS1320010.69 Unspecified NONE
11732001-02-09 11:01PSTYes???USGS1410010.65 Unspecified NONE
11722001-02-09 10:54PSTYes???USGS1620010.60 Unspecified NONE
11712001-02-09 10:49PSTYes???USGS1580010.58 Unspecified NONE
11702001-02-09 10:43PSTYes???USGS1790010.57 Unspecified NONE
11692001-02-09 10:38PSTYes???USGS1780010.56 Unspecified NONE
11682001-02-09 10:33PSTYes???USGS1970010.56 Unspecified NONE
11672001-02-09 10:28PSTYes???USGS1930010.55 Unspecified NONE
11662001-02-09 10:22PSTYes???USGS2110010.56 Unspecified NONE
11652001-02-09 10:16PSTYes???USGS2060010.57 Unspecified NONE
11642001-02-09 10:10PSTYes???USGS2210010.59 Unspecified NONE
11632001-02-09 10:06PSTYes???USGS2180010.62 Unspecified NONE
11622001-02-09 09:59PSTYes???USGS2340010.64 Unspecified NONE
11612001-02-09 09:52PSTYes???USGS2350010.67 Unspecified NONE
11602001-02-09 09:46PSTYes???USGS2450010.69 Unspecified NONE
11592001-02-09 09:40PSTYes???USGS2330010.72 Unspecified NONE
11582001-02-09 09:34PSTYes???USGS2370010.74 Unspecified NONE
11572001-02-09 09:29PSTYes???USGS2270010.76 Unspecified NONE
11562001-02-09 09:24PSTYes???USGS2350010.78 Unspecified NONE
11552001-02-09 09:18PSTYes???USGS2270010.81 Unspecified NONE
11542001-02-09 09:12PSTYes???USGS2380010.84 Unspecified NONE
11532001-02-09 09:07PSTYes???USGS2200010.88 Unspecified NONE
11522001-02-09 09:01PSTYes???USGS2360010.91 Unspecified NONE
11512001-02-09 08:55PSTYes???USGS2220010.94 Unspecified NONE
11502001-02-09 08:48PSTYes???USGS2210010.99 Unspecified NONE
11492001-02-09 08:39PSTYes???USGS2060011.05 Unspecified NONE
11482001-02-09 08:33PSTYes???USGS2050011.09 Unspecified NONE
11472001-02-09 08:26PSTYes???USGS1880011.14 Unspecified NONE
11462001-02-09 08:20PSTYes???USGS1900011.20 Unspecified NONE
11452001-02-09 08:11PSTYes???USGS1600011.26 Unspecified NONE
11442001-02-09 08:04PSTYes???USGS1570011.33 Unspecified NONE
11432001-02-09 07:56PSTYes???USGS1290011.40 Unspecified NONE
11422001-02-09 07:49PSTYes???USGS1240011.47 Unspecified NONE
11412001-02-09 07:37PSTYes???USGS322011.59 Unspecified NONE
11402001-02-08 09:43PSTYes???USGS1800010.37 Unspecified NONE
11392001-02-08 09:36PSTYes???USGS1700010.38 Unspecified NONE
11382001-02-08 09:26PSTYes???USGS1980010.40 Unspecified NONE
11372001-02-08 09:20PSTYes???USGS1960010.41 Unspecified NONE
11362001-02-08 09:14PSTYes???USGS2100010.44 Unspecified NONE
11352001-02-08 09:07PSTYes???USGS2110010.46 Unspecified NONE
11342001-02-08 08:59PSTYes???USGS2260010.49 Unspecified NONE
11332001-02-08 08:51PSTYes???USGS2200010.52 Unspecified NONE
11322001-02-08 08:44PSTYes???USGS2240010.56 Unspecified NONE
11312001-02-08 08:16PSTYes???USGS2260010.73 Unspecified NONE
11302001-02-08 08:09PSTYes???USGS2090010.77 Unspecified NONE
11292001-02-08 08:00PSTYes???USGS2080010.83 Unspecified NONE
11282001-01-18 15:16PSTYes???USGS2520011.44 Unspecified NONE
11272001-01-18 15:10PSTYes???USGS2520011.49 Unspecified NONE
11262001-01-18 15:03PSTYes???USGS2570011.55 Unspecified NONE
11252001-01-18 14:56PSTYes???USGS2470011.60 Unspecified NONE
11242001-01-18 14:49PSTYes???USGS2430011.65 Unspecified NONE
11232001-01-18 14:37PSTYes???USGS2280011.74 Unspecified NONE
11222001-01-18 14:25PSTYes???USGS2130011.85 Unspecified NONE
11212001-01-18 14:13PSTYes???USGS1910011.95 Unspecified NONE
11202001-01-18 14:01PSTYes???USGS1650012.07 Unspecified NONE
11192001-01-18 13:51PSTYes???USGS1460012.17 Unspecified NONE
11182001-01-18 13:43PSTYes???USGS1210012.25 Unspecified NONE
11172001-01-18 13:37PSTYes???USGS994012.32 Unspecified NONE
11162001-01-18 13:26PSTYes???USGS627012.43 Unspecified NONE
11152001-01-18 13:19PSTYes???USGS373012.50 Unspecified NONE
11142001-01-18 13:12PSTYes???USGS81412.57 Unspecified NONE
11132001-01-18 13:05PSTYes???USGS-218012.65 Unspecified NONE
11122001-01-18 12:58PSTYes???USGS-440012.70 Unspecified NONE
11112001-01-18 12:51PSTYes???USGS-647012.76 Unspecified NONE
11102001-01-18 12:44PSTYes???USGS-936012.82 Unspecified NONE
11092001-01-18 12:35PSTYes???USGS-1200012.89 Unspecified NONE
11082001-01-18 12:26PSTYes???USGS-1460012.94 Unspecified NONE
11072001-01-18 12:17PSTYes???USGS-1690012.98 Unspecified NONE
11062001-01-18 11:57PSTYes???USGS-2080013.03 Unspecified NONE
11052001-01-18 11:51PSTYes???USGS-2170013.03 Unspecified NONE
11042001-01-18 11:43PSTYes???USGS-2290013.04 Unspecified NONE
11032001-01-18 11:36PSTYes???USGS-2370013.02 Unspecified NONE
11022001-01-18 11:30PSTYes???USGS-2420013.02 Unspecified NONE
11012001-01-18 11:24PSTYes???USGS-2530013.00 Unspecified NONE
11002001-01-18 11:17PSTYes???USGS-2630012.98 Unspecified NONE
10992001-01-18 11:11PSTYes???USGS-2700012.96 Unspecified NONE
10982001-01-18 11:03PSTYes???USGS-2730012.93 Unspecified NONE
10972001-01-18 10:57PSTYes???USGS-2730012.90 Unspecified NONE
10962000-10-16 16:13PSTYes???USGS-2830012.85 Unspecified NONE
10952000-10-16 16:05PSTYes???USGS-2740012.79 Unspecified NONE
10942000-10-16 15:56PSTYes???USGS-2700012.72 Unspecified NONE
10932000-10-16 15:48PSTYes???USGS-2630012.67 Unspecified NONE
10922000-10-16 15:40PSTYes???USGS-2600012.61 Unspecified NONE
10912000-10-16 15:32PSTYes???USGS-2570012.54 Unspecified NONE
10902000-10-16 15:25PSTYes???USGS-2480012.49 Unspecified NONE
10892000-10-16 15:16PSTYes???USGS-2320012.41 Unspecified NONE
10882000-10-16 15:10PSTYes???USGS-2300012.37 Unspecified NONE
10872000-10-16 15:04PSTYes???USGS-2270012.32 Unspecified NONE
10862000-10-16 14:56PSTYes???USGS-2150012.26 Unspecified NONE
10852000-10-16 14:49PSTYes???USGS-2030012.20 Unspecified NONE
10842000-10-16 14:42PSTYes???USGS-1930012.15 Unspecified NONE
10832000-10-16 14:37PSTYes???USGS-1940012.11 Unspecified NONE
10822000-10-16 14:32PSTYes???USGS-1850012.08 Unspecified NONE
10812000-10-16 14:27PSTYes???USGS-1790012.05 Unspecified NONE
10802000-10-16 14:22PSTYes???USGS-1650012.01 Unspecified NONE
10792000-10-16 14:17PSTYes???USGS-1530011.96 Unspecified NONE
10782000-10-16 14:11PSTYes???USGS-1380011.92 Unspecified NONE
10772000-10-16 14:06PSTYes???USGS-1260011.88 Unspecified NONE
10762000-10-16 14:01PSTYes???USGS-1050011.85 Unspecified NONE
10752000-10-16 13:55PSTYes???USGS-882011.81 Unspecified NONE
10742000-10-16 13:50PSTYes???USGS-675011.77 Unspecified NONE
10732000-10-16 13:45PSTYes???USGS-467011.73 Unspecified NONE
10722000-10-16 13:40PSTYes???USGS-224011.69 Unspecified NONE
10712000-10-16 13:34PSTYes???USGS-40611.65 Unspecified NONE
10702000-09-20 14:53PSTYes???USGS1310012.00 Unspecified NONE
10692000-09-20 14:45PSTYes???USGS1440011.94 Unspecified NONE
10682000-09-20 14:40PSTYes???USGS1450011.92 Unspecified NONE
10672000-09-20 14:06PSTYes???USGS1530011.84 Unspecified NONE
10662000-09-20 13:25PSTYes???USGS1170011.85 Unspecified NONE
10652000-09-20 13:16PSTYes???USGS1060011.86 Unspecified NONE
10642000-09-20 13:11PSTYes???USGS976011.88 Unspecified NONE
10632000-09-20 13:06PSTYes???USGS895011.90 Unspecified NONE
10622000-09-20 13:01PSTYes???USGS802011.91 Unspecified NONE
10612000-09-20 12:56PSTYes???USGS737011.93 Unspecified NONE
10602000-09-20 12:52PSTYes???USGS619011.94 Unspecified NONE
10592000-09-20 12:47PSTYes???USGS541011.97 Unspecified NONE
10582000-09-20 12:42PSTYes???USGS422011.99 Unspecified NONE
10572000-09-20 12:37PSTYes???USGS313012.02 Unspecified NONE
10562000-09-20 12:30PSTYes???USGS143012.06 Unspecified NONE
10552000-09-20 12:25PSTYes???USGS29612.08 Unspecified NONE
10542000-09-20 12:21PSTYes???USGS-71012.10 Unspecified NONE
10532000-09-20 12:17PSTYes???USGS-179012.13 Unspecified NONE
10522000-09-20 12:11PSTYes???USGS-317012.16 Unspecified NONE
10512000-09-20 12:06PSTYes???USGS-418012.19 Unspecified NONE
10502000-09-20 11:56PSTYes???USGS-642012.24 Unspecified NONE
10492000-09-20 11:51PSTYes???USGS-761012.28 Unspecified NONE
10482000-09-20 11:46PSTYes???USGS-833012.30 Unspecified NONE
10472000-09-20 11:41PSTYes???USGS-931012.32 Unspecified NONE
10462000-09-20 11:32PSTYes???USGS-1110012.37 Unspecified NONE
10452000-09-20 11:27PSTYes???USGS-1140012.40 Unspecified NONE
10442000-09-20 11:23PSTYes???USGS-1270012.42 Unspecified NONE
10432000-09-20 11:18PSTYes???USGS-1310012.44 Unspecified NONE
10422000-09-20 11:14PSTYes???USGS-1440012.46 Unspecified NONE
10412000-09-20 11:09PSTYes???USGS-1500012.48 Unspecified NONE
10402000-09-20 10:59PSTYes???USGS-1610012.53 Unspecified NONE
10392000-09-20 10:55PSTYes???USGS-1630012.55 Unspecified NONE
10382000-09-20 10:50PSTYes???USGS-1740012.57 Unspecified NONE
10372000-09-20 10:43PSTYes???USGS-1790012.58 Unspecified NONE
10362000-09-20 10:35PSTYes???USGS-1820012.60 Unspecified NONE
10352000-09-20 10:28PSTYes???USGS-1960012.61 Unspecified NONE
10342000-09-20 10:22PSTYes???USGS-2010012.63 Unspecified NONE
10332000-09-20 10:16PSTYes???USGS-2070012.63 Unspecified NONE
10322000-08-23 17:19PSTYes???USGS-1190011.91 Unspecified NONE
10312000-08-23 17:14PSTYes???USGS-1010011.87 Unspecified NONE
10302000-08-23 17:08PSTYes???USGS-796011.81 Unspecified NONE
10292000-08-23 17:02PSTYes???USGS-605011.76 Unspecified NONE
10282000-08-23 16:56PSTYes???USGS-406011.71 Unspecified NONE
10272000-08-23 16:51PSTYes???USGS-182011.67 Unspecified NONE
10262000-08-23 16:45PSTYes???USGS37.011.62 Unspecified NONE
10252000-08-23 16:41PSTYes???USGS197011.58 Unspecified NONE
10242000-08-23 16:36PSTYes???USGS285011.54 Unspecified NONE
10232000-08-23 16:31PSTYes???USGS453011.51 Unspecified NONE
10222000-08-23 16:19PSTYes???USGS676011.45 Unspecified NONE
10212000-08-23 16:15PSTYes???USGS804011.43 Unspecified NONE
10202000-08-23 16:10PSTYes???USGS896011.41 Unspecified NONE
10192000-08-23 16:04PSTYes???USGS970011.41 Unspecified NONE
10182000-08-23 15:52PSTYes???USGS1160011.39 Unspecified NONE
10172000-08-23 15:46PSTYes???USGS1240011.38 Unspecified NONE
10162000-08-23 15:40PSTYes???USGS1300011.37 Unspecified NONE
10152000-08-23 15:34PSTYes???USGS1330011.38 Unspecified NONE
10142000-08-23 15:18PSTYes???USGS1440011.41 Unspecified NONE
10132000-08-23 15:12PSTYes???USGS1470011.43 Unspecified NONE
10122000-08-23 15:07PSTYes???USGS1490011.45 Unspecified NONE
10112000-08-23 14:58PSTYes???USGS1470011.49 Unspecified NONE
10102000-08-16 15:24PSTYes???USGS-2750011.67 Unspecified NONE
10092000-08-16 15:20PSTYes???USGS-2660011.64 Unspecified NONE
10082000-08-16 15:16PSTYes???USGS-2650011.61 Unspecified NONE
10072000-08-16 15:12PSTYes???USGS-2660011.58 Unspecified NONE
10062000-08-16 15:02PSTYes???USGS-2600011.50 Unspecified NONE
10052000-08-16 14:58PSTYes???USGS-2540011.48 Unspecified NONE
10042000-08-16 14:54PSTYes???USGS-2560011.46 Unspecified NONE
10032000-08-16 14:51PSTYes???USGS-2580011.43 Unspecified NONE
10022000-08-16 14:46PSTYes???USGS-2500011.40 Unspecified NONE
10012000-08-16 14:43PSTYes???USGS-2460011.37 Unspecified NONE
10002000-08-16 14:39PSTYes???USGS-2400011.34 Unspecified NONE
9992000-08-16 14:35PSTYes???USGS-2370011.31 Unspecified NONE
9982000-08-16 14:31PSTYes???USGS-2330011.28 Unspecified NONE
9972000-08-16 14:28PSTYes???USGS-2290011.25 Unspecified NONE
9962000-08-16 14:24PSTYes???USGS-2260011.22 Unspecified NONE
9952000-08-16 14:21PSTYes???USGS-2220011.19 Unspecified NONE
9942000-08-16 14:17PSTYes???USGS-2160011.16 Unspecified NONE
9932000-08-16 14:14PSTYes???USGS-2100011.13 Unspecified NONE
9922000-08-16 14:10PSTYes???USGS-2110011.09 Unspecified NONE
9912000-08-16 14:02PSTYes???USGS-2020011.02 Unspecified NONE
9902000-08-16 13:58PSTYes???USGS-1980010.98 Unspecified NONE
9892000-08-16 13:31PSTYes???USGS-1150010.67 Unspecified NONE
9882000-08-16 13:28PSTYes???USGS-1230010.63 Unspecified NONE
9872000-08-16 13:25PSTYes???USGS-1160010.60 Unspecified NONE
9862000-08-16 13:22PSTYes???USGS-970010.56 Unspecified NONE
9852000-08-16 13:18PSTYes???USGS-889010.52 Unspecified NONE
9842000-08-16 13:15PSTYes???USGS-697010.48 Unspecified NONE
9832000-08-16 13:12PSTYes???USGS-597010.45 Unspecified NONE
9822000-08-16 13:08PSTYes???USGS-389010.40 Unspecified NONE
9812000-08-16 13:05PSTYes???USGS-280010.37 Unspecified NONE
9802000-08-16 12:59PSTYes???USGS-27210.30 Unspecified NONE
9792000-08-16 12:56PSTYes???USGS85310.27 Unspecified NONE
9782000-08-16 12:53PSTYes???USGS275010.24 Unspecified NONE
9772000-08-16 12:49PSTYes???USGS358010.22 Unspecified NONE
9762000-08-16 12:46PSTYes???USGS509010.19 Unspecified NONE
9752000-08-16 12:42PSTYes???USGS648010.16 Unspecified NONE
9742000-08-16 12:38PSTYes???USGS808010.13 Unspecified NONE
9732000-08-16 12:35PSTYes???USGS880010.10 Unspecified NONE
9722000-02-23 15:46PSTYes???USGS-2100012.10 Unspecified NONE
9712000-02-23 15:42PSTYes???USGS-1930012.06 Unspecified NONE
9702000-02-23 15:38PSTYes???USGS-1760012.02 Unspecified NONE
9692000-02-23 15:34PSTYes???USGS-1630011.98 Unspecified NONE
9682000-02-23 15:30PSTYes???USGS-1470011.94 Unspecified NONE
9672000-02-23 15:26PSTYes???USGS-1280011.90 Unspecified NONE
9662000-02-23 15:22PSTYes???USGS-1060011.85 Unspecified NONE
9652000-02-23 15:18PSTYes???USGS-916011.81 Unspecified NONE
9642000-02-23 15:14PSTYes???USGS-696011.77 Unspecified NONE
9632000-02-23 15:11PSTYes???USGS-509011.74 Unspecified NONE
9622000-02-23 15:07PSTYes???USGS-315011.70 Unspecified NONE
9612000-02-23 15:02PSTYes???USGS-122011.65 Unspecified NONE
9602000-02-23 14:58PSTYes???USGS98711.61 Unspecified NONE
9592000-02-23 14:52PSTYes???USGS305011.55 Unspecified NONE
9582000-02-23 14:45PSTYes???USGS572011.50 Unspecified NONE
9572000-02-23 14:39PSTYes???USGS796011.46 Unspecified NONE
9562000-02-23 14:32PSTYes???USGS985011.42 Unspecified NONE
9552000-02-23 14:26PSTYes???USGS1160011.39 Unspecified NONE
9542000-02-23 14:19PSTYes???USGS1290011.37 Unspecified NONE
9532000-02-23 14:13PSTYes???USGS1380011.35 Unspecified NONE
9522000-02-23 14:07PSTYes???USGS1530011.34 Unspecified NONE
9512000-02-23 14:02PSTYes???USGS1620011.33 Unspecified NONE
9502000-02-23 13:52PSTYes???USGS1780011.33 Unspecified NONE
9492000-02-23 13:48PSTYes???USGS1810011.33 Unspecified NONE
9482000-02-23 13:37PSTYes???USGS1990011.35 Unspecified NONE
9472000-02-23 13:17PSTYes???USGS2170011.40 Unspecified NONE
9462000-02-23 13:12PSTYes???USGS2200011.42 Unspecified NONE
9452000-02-23 13:02PSTYes???USGS2290011.45 Unspecified NONE
9442000-02-23 12:56PSTYes???USGS2310011.47 Unspecified NONE
9432000-02-23 12:39PSTYes???USGS2360011.56 Unspecified NONE
9422000-02-23 12:34PSTYes???USGS2400011.59 Unspecified NONE
9412000-02-23 12:08PSTYes???USGS2640011.73 Unspecified NONE
9402000-02-23 12:00PSTYes???USGS2590011.78 Unspecified NONE
9392000-02-23 11:40PSTYes???USGS2730011.92 Unspecified NONE
9382000-02-23 11:34PSTYes???USGS2700011.96 Unspecified NONE
9372000-02-23 11:27PSTYes???USGS2680012.01 Unspecified NONE
9362000-02-23 11:20PSTYes???USGS2690012.06 Unspecified NONE
9352000-02-15 15:25PSTYes???USGS2850013.08 Unspecified NONE
9342000-02-15 15:21PSTYes???USGS2840013.12 Unspecified NONE
9332000-02-15 15:13PSTYes???USGS2760013.18 Unspecified NONE
9322000-02-15 15:09PSTYes???USGS2710013.22 Unspecified NONE
9312000-02-15 14:58PSTYes???USGS2690013.31 Unspecified NONE
9302000-02-15 14:53PSTYes???USGS2640013.35 Unspecified NONE
9292000-02-15 14:42PSTYes???USGS2530013.43 Unspecified NONE
9282000-02-15 14:37PSTYes???USGS2470013.46 Unspecified NONE
9272000-02-15 14:26PSTYes???USGS2340013.52 Unspecified NONE
9262000-02-15 14:22PSTYes???USGS2290013.56 Unspecified NONE
9252000-02-15 14:12PSTYes???USGS2170013.62 Unspecified NONE
9242000-02-15 14:08PSTYes???USGS2100013.65 Unspecified NONE
9232000-02-15 13:55PSTYes???USGS1850013.75 Unspecified NONE
9222000-02-15 13:50PSTYes???USGS1750013.79 Unspecified NONE
9212000-02-15 13:40PSTYes???USGS1440013.89 Unspecified NONE
9202000-02-15 13:36PSTYes???USGS1320013.93 Unspecified NONE
9192000-02-15 13:32PSTYes???USGS1220013.96 Unspecified NONE
9182000-02-15 13:29PSTYes???USGS1090013.99 Unspecified NONE
9172000-02-15 13:25PSTYes???USGS953014.02 Unspecified NONE
9162000-02-15 13:22PSTYes???USGS803014.05 Unspecified NONE
9152000-02-15 13:18PSTYes???USGS686014.09 Unspecified NONE
9142000-02-15 13:14PSTYes???USGS493014.12 Unspecified NONE
9132000-02-15 13:11PSTYes???USGS355014.15 Unspecified NONE
9122000-02-15 13:07PSTYes???USGS200014.18 Unspecified NONE
9112000-02-15 13:03PSTYes???USGS15814.22 Unspecified NONE
9102000-02-15 12:59PSTYes???USGS-193014.26 Unspecified NONE
9092000-02-15 12:55PSTYes???USGS-371014.29 Unspecified NONE
9082000-02-15 12:50PSTYes???USGS-508014.33 Unspecified NONE
9072000-02-15 12:46PSTYes???USGS-693014.35 Unspecified NONE
9062000-02-15 12:42PSTYes???USGS-802014.38 Unspecified NONE
9052000-02-15 12:38PSTYes???USGS-990014.40 Unspecified NONE
9042000-02-15 12:34PSTYes???USGS-1100014.42 Unspecified NONE
9032000-02-15 12:30PSTYes???USGS-1220014.44 Unspecified NONE
9022000-02-15 12:26PSTYes???USGS-1400014.46 Unspecified NONE
9012000-02-15 12:16PSTYes???USGS-1710014.49 Unspecified NONE
9002000-02-15 12:13PSTYes???USGS-1900014.49 Unspecified NONE
8992000-02-15 12:01PSTYes???USGS-2150014.51 Unspecified NONE
8982000-02-15 11:57PSTYes???USGS-2290014.51 Unspecified NONE
8972000-02-15 11:46PSTYes???USGS-2540014.51 Unspecified NONE
8962000-02-15 11:41PSTYes???USGS-2600014.50 Unspecified NONE
8952000-02-15 11:36PSTYes???USGS-2730014.49 Unspecified NONE
8942000-02-15 11:31PSTYes???USGS-2800014.48 Unspecified NONE
8932000-02-15 11:21PSTYes???USGS-3060014.43 Unspecified NONE
8922000-02-15 11:16PSTYes???USGS-3090014.41 Unspecified NONE
8912000-02-15 11:06PSTYes???USGS-3200014.36 Unspecified NONE
8902000-02-15 11:01PSTYes???USGS-3200014.33 Unspecified NONE
8892000-02-15 10:51PSTYes???USGS-3380014.28 Unspecified NONE
8882000-02-15 10:46PSTYes???USGS-3360014.25 Unspecified NONE
8872000-02-15 10:37PSTYes???USGS-3440014.17 Unspecified NONE
8862000-02-15 10:32PSTYes???USGS-3490014.13 Unspecified NONE
8852000-02-15 10:23PSTYes???USGS-3500014.07 Unspecified NONE
8842000-02-15 10:18PSTYes???USGS-3450014.03 Unspecified NONE
8832000-02-15 10:12PSTYes???USGS-3520013.98 Unspecified NONE
8822000-02-15 10:07PSTYes???USGS-3500013.95 Unspecified NONE
8812000-02-15 09:53PSTYes???USGS-3500013.83 Unspecified NONE
8802000-02-15 09:47PSTYes???USGS-3440013.79 Unspecified NONE
8792000-02-15 09:41PSTYes???USGS-3450013.75 Unspecified NONE
8782000-02-15 09:34PSTYes???USGS-3400013.68 Unspecified NONE
8772000-01-27 11:47PSTYes???USGS2110012.42 Unspecified NONE
8762000-01-27 11:44PSTYes???USGS2060012.45 Unspecified NONE
8752000-01-27 11:35PSTYes???USGS1850012.53 Unspecified NONE
8742000-01-27 11:31PSTYes???USGS1780012.57 Unspecified NONE
8732000-01-27 11:23PSTYes???USGS1480012.64 Unspecified NONE
8722000-01-27 11:19PSTYes???USGS1420012.68 Unspecified NONE
8712000-01-27 11:15PSTYes???USGS1340012.71 Unspecified NONE
8702000-01-27 11:11PSTYes???USGS1160012.74 Unspecified NONE
8692000-01-27 11:07PSTYes???USGS1030012.78 Unspecified NONE
8682000-01-27 11:04PSTYes???USGS872012.81 Unspecified NONE
8672000-01-27 11:01PSTYes???USGS761012.84 Unspecified NONE
8662000-01-27 10:57PSTYes???USGS564012.88 Unspecified NONE
8652000-01-27 10:53PSTYes???USGS392012.91 Unspecified NONE
8642000-01-27 10:49PSTYes???USGS275012.94 Unspecified NONE
8632000-01-27 10:46PSTYes???USGS111012.97 Unspecified NONE
8622000-01-27 10:41PSTYes???USGS-100013.02 Unspecified NONE
8612000-01-27 10:38PSTYes???USGS-242013.05 Unspecified NONE
8602000-01-27 10:34PSTYes???USGS-377013.08 Unspecified NONE
8592000-01-27 10:30PSTYes???USGS-507013.11 Unspecified NONE
8582000-01-27 10:27PSTYes???USGS-692013.13 Unspecified NONE
8572000-01-27 10:24PSTYes???USGS-748013.15 Unspecified NONE
8562000-01-27 10:20PSTYes???USGS-897013.17 Unspecified NONE
8552000-01-27 10:16PSTYes???USGS-1040013.19 Unspecified NONE
8542000-01-27 10:12PSTYes???USGS-1180013.22 Unspecified NONE
8532000-01-27 10:08PSTYes???USGS-1310013.24 Unspecified NONE
8522000-01-27 10:04PSTYes???USGS-1450013.27 Unspecified NONE
8512000-01-27 09:59PSTYes???USGS-1610013.28 Unspecified NONE
8502000-01-27 09:55PSTYes???USGS-1670013.30 Unspecified NONE
8492000-01-27 09:51PSTYes???USGS-1830013.31 Unspecified NONE
8482000-01-27 09:47PSTYes???USGS-1930013.32 Unspecified NONE
8472000-01-21 13:21PSTYes???USGS-3760012.94 Unspecified NONE
8462000-01-21 13:12PSTYes???USGS-3740012.87 Unspecified NONE
8452000-01-21 12:45PSTYes???USGS-3390012.64 Unspecified NONE
8442000-01-21 12:38PSTYes???USGS-3310012.58 Unspecified NONE
8432000-01-21 12:31PSTYes???USGS-3170012.53 Unspecified NONE
8422000-01-21 12:24PSTYes???USGS-3090012.47 Unspecified NONE
8412000-01-21 12:18PSTYes???USGS-2950012.42 Unspecified NONE
8402000-01-21 12:11PSTYes???USGS-2860012.36 Unspecified NONE
8392000-01-21 12:04PSTYes???USGS-2690012.29 Unspecified NONE
8382000-01-21 11:58PSTYes???USGS-2580012.24 Unspecified NONE
8372000-01-21 11:51PSTYes???USGS-2420012.17 Unspecified NONE
8362000-01-21 11:45PSTYes???USGS-2290012.10 Unspecified NONE
8352000-01-21 11:37PSTYes???USGS-1980012.01 Unspecified NONE
8342000-01-21 11:29PSTYes???USGS-1710011.90 Unspecified NONE
8332000-01-21 11:22PSTYes???USGS-1420011.81 Unspecified NONE
8322000-01-21 11:15PSTYes???USGS-1120011.72 Unspecified NONE
8312000-01-21 11:08PSTYes???USGS-798011.62 Unspecified NONE
8302000-01-21 11:02PSTYes???USGS-417011.53 Unspecified NONE
8292000-01-21 10:55PSTYes???USGS-97011.43 Unspecified NONE
8282000-01-21 10:48PSTYes???USGS254011.35 Unspecified NONE
8272000-01-21 10:42PSTYes???USGS552011.29 Unspecified NONE
8262000-01-21 10:36PSTYes???USGS746011.23 Unspecified NONE
8252000-01-21 10:30PSTYes???USGS962011.18 Unspecified NONE
8242000-01-21 10:24PSTYes???USGS1150011.12 Unspecified NONE
8232000-01-21 10:18PSTYes???USGS1380011.09 Unspecified NONE
8222000-01-21 10:10PSTYes???USGS1550011.05 Unspecified NONE
8212000-01-21 09:56PSTYes???USGS1830011.02 Unspecified NONE
8202000-01-21 09:52PSTYes???USGS1920011.02 Unspecified NONE
8192000-01-21 09:39PSTYes???USGS2120011.03 Unspecified NONE
8182000-01-21 09:35PSTYes???USGS2130011.04 Unspecified NONE
8172000-01-21 09:20PSTYes???USGS2250011.07 Unspecified NONE
8162000-01-21 09:16PSTYes???USGS2320011.09 Unspecified NONE
8152000-01-21 09:11PSTYes???USGS2350011.11 Unspecified NONE
8142000-01-21 09:07PSTYes???USGS2260011.13 Unspecified NONE
8131999-11-16 12:23PSTYes???USGS-1260012.60 Unspecified NONE
8121999-11-16 12:19PSTYes???USGS-1330012.61 Unspecified NONE
8111999-11-16 12:16PSTYes???USGS-1380012.62 Unspecified NONE
8101999-11-16 12:13PSTYes???USGS-1400012.62 Unspecified NONE
8091999-11-16 12:09PSTYes???USGS-1480012.62 Unspecified NONE
8081999-11-16 12:06PSTYes???USGS-1580012.63 Unspecified NONE
8071999-05-28 12:05PSTYes???USGS-1480011.14 Unspecified NONE
8061999-05-28 11:59PSTYes???USGS-1290011.07 Unspecified NONE
8051999-05-28 11:54PSTYes???USGS-1080011.01 Unspecified NONE
8041999-05-28 11:47PSTYes???USGS-773010.93 Unspecified NONE
8031999-05-28 11:42PSTYes???USGS-524010.88 Unspecified NONE
8021999-05-28 11:36PSTYes???USGS-237010.81 Unspecified NONE
8011999-05-28 11:30PSTYes???USGS84.010.73 Unspecified NONE
8001999-05-28 11:25PSTYes???USGS228010.68 Unspecified NONE
7991999-05-28 11:20PSTYes???USGS426010.62 Unspecified NONE
7981999-05-28 11:15PSTYes???USGS626010.56 Unspecified NONE
7971999-05-28 11:10PSTYes???USGS865010.51 Unspecified NONE
7961999-05-28 11:03PSTYes???USGS1040010.44 Unspecified NONE
7951999-05-28 10:57PSTYes???USGS1230010.38 Unspecified NONE
7941999-05-28 10:51PSTYes???USGS1470010.33 Unspecified NONE
7931998-06-11 15:01PSTYes???USGS-2670012.38 Unspecified NONE
7921998-06-11 14:56PSTYes???USGS-2560012.36 Unspecified NONE
7911998-06-11 14:53PSTYes???USGS-2550012.33 Unspecified NONE
7901998-06-11 14:49PSTYes???USGS-2550012.30 Unspecified NONE
7891998-06-11 14:45PSTYes???USGS-2450012.28 Unspecified NONE
7881998-06-11 14:42PSTYes???USGS-2270012.25 Unspecified NONE
7871998-06-11 14:39PSTYes???USGS-2310012.22 Unspecified NONE
7861998-06-11 14:35PSTYes???USGS-2190012.18 Unspecified NONE
7851998-06-11 14:32PSTYes???USGS-2120012.15 Unspecified NONE
7841998-06-11 14:28PSTYes???USGS-2040012.11 Unspecified NONE
7831998-06-11 14:25PSTYes???USGS-1980012.08 Unspecified NONE
7821998-06-11 14:21PSTYes???USGS-1850012.04 Unspecified NONE
7811998-06-11 14:17PSTYes???USGS-1810012.00 Unspecified NONE
7801998-06-11 14:13PSTYes???USGS-1600011.95 Unspecified NONE
7791998-06-11 14:09PSTYes???USGS-1420011.89 Unspecified NONE
7781998-06-11 14:05PSTYes???USGS-1270011.86 Unspecified NONE
7771998-06-11 14:02PSTYes???USGS-1120011.82 Unspecified NONE
7761998-06-11 13:59PSTYes???USGS-968011.78 Unspecified NONE
7751998-06-11 13:56PSTYes???USGS-814011.74 Unspecified NONE
7741998-06-11 13:53PSTYes???USGS-654011.70 Unspecified NONE
7731998-06-11 13:51PSTYes???USGS-452011.67 Unspecified NONE
7721998-06-11 13:47PSTYes???USGS-356011.62 Unspecified NONE
7711998-06-11 13:44PSTYes???USGS-252011.57 Unspecified NONE
7701998-06-11 13:41PSTYes???USGS-120011.53 Unspecified NONE
7691998-06-11 13:37PSTYes???USGS62211.48 Unspecified NONE
7681998-06-11 13:34PSTYes???USGS210011.43 Unspecified NONE
7671998-06-11 13:30PSTYes???USGS387011.38 Unspecified NONE
7661998-06-11 13:27PSTYes???USGS538011.32 Unspecified NONE
7651998-06-11 13:23PSTYes???USGS700011.27 Unspecified NONE
7641998-06-11 13:20PSTYes???USGS820011.23 Unspecified NONE
7631998-06-11 13:16PSTYes???USGS994011.17 Unspecified NONE
7621998-06-11 13:12PSTYes???USGS1080011.12 Unspecified NONE
7611998-06-11 13:09PSTYes???USGS1210011.08 Unspecified NONE
7601998-06-11 13:05PSTYes???USGS1310011.04 Unspecified NONE
7591998-06-11 13:02PSTYes???USGS1410011.00 Unspecified NONE
7581998-06-11 12:58PSTYes???USGS1470010.96 Unspecified NONE
7571998-06-11 12:55PSTYes???USGS1620010.93 Unspecified NONE
7561998-06-11 12:52PSTYes???USGS1610010.91 Unspecified NONE
7551998-06-11 12:34PSTYes???USGS2040010.80 Unspecified NONE
7541998-06-11 12:29PSTYes???USGS2090010.78 Unspecified NONE
7531998-06-11 12:25PSTYes???USGS2150010.77 Unspecified NONE
7521998-06-11 12:20PSTYes???USGS2240010.76 Unspecified NONE
7511998-06-11 12:16PSTYes???USGS2320010.76 Unspecified NONE
7501998-06-11 12:10PSTYes???USGS2340010.76 Unspecified NONE
7491998-06-11 12:03PSTYes???USGS2370010.76 Unspecified NONE
7481998-06-11 11:58PSTYes???USGS2410010.77 Unspecified NONE
7471998-06-11 11:53PSTYes???USGS2460010.78 Unspecified NONE
7461998-06-11 11:48PSTYes???USGS2540010.80 Unspecified NONE
7451998-06-11 11:43PSTYes???USGS2590010.82 Unspecified NONE
7441998-06-11 11:40PSTYes???USGS2480010.83 Unspecified NONE
7431998-06-11 11:37PSTYes???USGS2580010.84 Unspecified NONE
7421998-06-11 11:34PSTYes???USGS2570010.85 Unspecified NONE
7411998-06-11 11:30PSTYes???USGS2640010.87 Unspecified NONE
7401998-06-11 11:26PSTYes???USGS2560010.88 Unspecified NONE
7391998-06-11 11:23PSTYes???USGS2640010.90 Unspecified NONE
7381998-06-11 11:19PSTYes???USGS2620010.91 Unspecified NONE
7371998-06-11 11:16PSTYes???USGS2620010.94 Unspecified NONE
7361998-06-11 11:12PSTYes???USGS2620010.96 Unspecified NONE
7351998-06-11 11:09PSTYes???USGS2720010.98 Unspecified NONE
7341998-06-11 11:05PSTYes???USGS2720011.00 Unspecified NONE
7331998-06-11 11:03PSTYes???USGS2680011.02 Unspecified NONE
7321998-06-11 10:57PSTYes???USGS2820011.05 Unspecified NONE
7311998-06-11 10:54PSTYes???USGS2750011.07 Unspecified NONE
7301998-06-11 10:50PSTYes???USGS2780011.11 Unspecified NONE
7291998-06-11 10:45PSTYes???USGS2800011.15 Unspecified NONE
7281998-06-11 10:41PSTYes???USGS2780011.19 Unspecified NONE
7271998-06-11 10:38PSTYes???USGS2810011.21 Unspecified NONE
7261998-06-11 10:34PSTYes???USGS2800011.24 Unspecified NONE
7251998-06-11 10:31PSTYes???USGS2800011.26 Unspecified NONE
7241998-06-11 10:27PSTYes???USGS2880011.29 Unspecified NONE
7231998-06-11 10:23PSTYes???USGS2850011.32 Unspecified NONE
7221998-06-11 10:19PSTYes???USGS2880011.35 Unspecified NONE
7211998-06-11 10:15PSTYes???USGS2760011.39 Unspecified NONE
7201998-06-11 10:10PSTYes???USGS2870011.44 Unspecified NONE
7191998-06-11 10:04PSTYes???USGS2810011.49 Unspecified NONE
7181998-06-11 09:59PSTYes???USGS2830011.54 Unspecified NONE
7171998-06-11 09:55PSTYes???USGS2860011.57 Unspecified NONE
7161998-06-11 09:51PSTYes???USGS2870011.61 Unspecified NONE
7151998-06-11 09:15PSTYes???USGS2920011.94 Unspecified NONE
7141998-06-11 09:10PSTYes???USGS2880012.00 Unspecified NONE
7131998-06-11 09:05PSTYes???USGS2940012.05 Unspecified NONE
7121998-06-11 08:59PSTYes???USGS2940012.11 Unspecified NONE
7111998-06-11 08:53PSTYes???USGS2950012.16 Unspecified NONE
7101998-06-11 08:48PSTYes???USGS2950012.22 Unspecified NONE
7091998-06-11 08:43PSTYes???USGS2910012.27 Unspecified NONE
7081998-06-11 08:39PSTYes???USGS2970012.31 Unspecified NONE
7071998-06-11 08:34PSTYes???USGS2910012.36 Unspecified NONE
7061998-06-11 08:28PSTYes???USGS2900012.42 Unspecified NONE
7051998-06-11 08:25PSTYes???USGS2950012.45 Unspecified NONE
7041998-06-11 08:21PSTYes???USGS2960012.49 Unspecified NONE
7031998-06-11 08:17PSTYes???USGS2910012.53 Unspecified NONE
7021998-06-11 08:13PSTYes???USGS2960012.56 Unspecified NONE
7011998-06-11 08:08PSTYes???USGS2910012.61 Unspecified NONE
7001998-06-11 08:04PSTYes???USGS2910012.66 Unspecified NONE
6991998-06-11 08:00PSTYes???USGS2970012.70 Unspecified NONE
6981998-06-11 07:56PSTYes???USGS2980012.74 Unspecified NONE
6971998-06-11 07:51PSTYes???USGS2900012.80 Unspecified NONE
6961998-06-11 07:46PSTYes???USGS2890012.84 Unspecified NONE
6951998-06-11 07:41PSTYes???USGS2920012.89 Unspecified NONE
6941998-06-11 07:36PSTYes???USGS2870012.94 Unspecified NONE
6931998-06-11 07:32PSTYes???USGS2850012.98 Unspecified NONE
6921998-06-11 07:28PSTYes???USGS2870013.02 Unspecified NONE
6911998-06-11 07:24PSTYes???USGS2840013.06 Unspecified NONE
6901998-06-11 07:21PSTYes???USGS2760013.09 Unspecified NONE
6891998-06-11 07:16PSTYes???USGS2710013.14 Unspecified NONE
6881998-06-11 07:12PSTYes???USGS2720013.18 Unspecified NONE
6871998-06-11 07:08PSTYes???USGS2650013.22 Unspecified NONE
6861998-06-11 07:03PSTYes???USGS2610013.26 Unspecified NONE
6851998-06-11 06:59PSTYes???USGS2600013.30 Unspecified NONE
6841998-06-11 06:55PSTYes???USGS2500013.33 Unspecified NONE
6831998-06-11 06:45PSTYes???USGS2380013.41 Unspecified NONE
6821998-06-11 06:42PSTYes???USGS2370013.44 Unspecified NONE
6811998-06-11 06:39PSTYes???USGS2300013.47 Unspecified NONE
6801998-06-11 06:35PSTYes???USGS2240013.50 Unspecified NONE
6791998-06-11 06:32PSTYes???USGS2220013.53 Unspecified NONE
6781998-06-11 06:28PSTYes???USGS2150013.56 Unspecified NONE
6771998-06-11 06:25PSTYes???USGS211000.00 Unspecified NONE
6761998-06-11 06:21PSTYes???USGS206000.00 Unspecified NONE
6751998-06-11 06:17PSTYes???USGS203000.00 Unspecified NONE
6741998-06-11 06:13PSTYes???USGS193000.00 Unspecified NONE
6731998-06-11 06:08PSTYes???USGS186000.00 Unspecified NONE
6721998-06-11 06:04PSTYes???USGS173000.00 Unspecified NONE
6711998-06-11 05:59PSTYes???USGS165000.00 Unspecified NONE
6701998-06-11 05:55PSTYes???USGS151000.00 Unspecified NONE
6691998-06-11 05:51PSTYes???USGS142000.00 Unspecified NONE
6681998-06-11 05:47PSTYes???USGS126000.00 Unspecified NONE
6671998-06-11 05:42PSTYes???USGS115000.00 Unspecified NONE
6661998-06-11 05:38PSTYes???USGS99400.00 Unspecified NONE
6651998-06-11 05:33PSTYes???USGS76700.00 Unspecified NONE
6641998-06-11 05:27PSTYes???USGS55200.00 Unspecified NONE
6631998-06-11 05:21PSTYes???USGS26500.00 Unspecified NONE
6621998-06-11 05:16PSTYes???USGS12300.00 Unspecified NONE
6611998-06-11 05:10PSTYes???USGS-12900.00 Unspecified NONE
6601998-06-11 05:05PSTYes???USGS-33700.00 Unspecified NONE
6591998-06-11 05:00PSTYes???USGS-50600.00 Unspecified NONE
6581998-06-11 04:55PSTYes???USGS-70600.00 Unspecified NONE
6571998-06-11 04:50PSTYes???USGS-86900.00 Unspecified NONE
6561998-06-11 04:46PSTYes???USGS-105000.00 Unspecified NONE
6551998-06-11 04:41PSTYes???USGS-118000.00 Unspecified NONE
6541998-06-11 04:27PSTYes???USGS-164000.00 Unspecified NONE
6531998-06-11 04:22PSTYes???USGS-177000.00 Unspecified NONE
6521998-06-02 14:57PSTYes???USGS2060011.33 Unspecified NONE
6511998-06-02 14:52PSTYes???USGS2080011.35 Unspecified NONE
6501998-06-02 14:47PSTYes???USGS2090011.38 Unspecified NONE
6491998-06-02 14:43PSTYes???USGS2070011.40 Unspecified NONE
6481998-06-02 14:39PSTYes???USGS2150011.43 Unspecified NONE
6471998-06-02 14:35PSTYes???USGS2080011.45 Unspecified NONE
6461998-06-02 14:31PSTYes???USGS2140011.48 Unspecified NONE
6451998-06-02 14:27PSTYes???USGS2140011.51 Unspecified NONE
6441998-06-02 14:23PSTYes???USGS2130011.54 Unspecified NONE
6431998-06-02 14:19PSTYes???USGS2130011.57 Unspecified NONE
6421998-06-02 14:15PSTYes???USGS2170011.61 Unspecified NONE
6411998-06-02 14:11PSTYes???USGS2080011.63 Unspecified NONE
6401998-06-02 14:07PSTYes???USGS2080011.65 Unspecified NONE
6391998-06-02 13:57PSTYes???USGS2100011.72 Unspecified NONE
6381998-06-02 13:53PSTYes???USGS2030011.75 Unspecified NONE
6371998-06-02 13:49PSTYes???USGS2050011.78 Unspecified NONE
6361998-06-02 13:45PSTYes???USGS2120011.81 Unspecified NONE
6351998-06-02 13:40PSTYes???USGS2030011.84 Unspecified NONE
6341998-06-02 13:36PSTYes???USGS2010011.86 Unspecified NONE
6331998-06-02 13:29PSTYes???USGS2010011.91 Unspecified NONE
6321998-06-02 13:25PSTYes???USGS1980011.93 Unspecified NONE
6311998-06-02 13:17PSTYes???USGS1960011.99 Unspecified NONE
6301998-06-02 13:12PSTYes???USGS1910012.02 Unspecified NONE
6291998-06-02 13:08PSTYes???USGS1930012.05 Unspecified NONE
6281998-06-02 13:03PSTYes???USGS1850012.09 Unspecified NONE
6271998-06-02 12:58PSTYes???USGS1810012.12 Unspecified NONE
6261998-06-02 12:54PSTYes???USGS1770012.14 Unspecified NONE
6251998-06-02 12:49PSTYes???USGS1790012.16 Unspecified NONE
6241998-06-02 12:45PSTYes???USGS1750012.18 Unspecified NONE
6231998-06-02 12:41PSTYes???USGS1730012.19 Unspecified NONE
6221998-06-02 12:37PSTYes???USGS1760012.22 Unspecified NONE
6211998-06-02 12:34PSTYes???USGS1650012.25 Unspecified NONE
6201998-06-02 12:30PSTYes???USGS1660012.27 Unspecified NONE
6191998-06-02 12:26PSTYes???USGS1560012.29 Unspecified NONE
6181998-06-02 12:22PSTYes???USGS1520012.31 Unspecified NONE
6171998-06-02 12:19PSTYes???USGS1490012.32 Unspecified NONE
6161998-06-02 12:15PSTYes???USGS1510012.34 Unspecified NONE
6151998-06-02 12:12PSTYes???USGS1440012.36 Unspecified NONE
6141998-06-02 12:08PSTYes???USGS1380012.38 Unspecified NONE
6131998-06-02 12:04PSTYes???USGS1360012.40 Unspecified NONE
6121998-06-02 12:01PSTYes???USGS1290012.42 Unspecified NONE
6111998-06-02 11:58PSTYes???USGS1240012.44 Unspecified NONE
6101998-06-02 11:54PSTYes???USGS1170012.46 Unspecified NONE
6091998-06-02 11:50PSTYes???USGS1080012.48 Unspecified NONE
6081998-06-02 11:47PSTYes???USGS1030012.50 Unspecified NONE
6071998-06-02 11:44PSTYes???USGS1000012.52 Unspecified NONE
6061998-06-02 11:40PSTYes???USGS964012.54 Unspecified NONE
6051998-06-02 11:37PSTYes???USGS806012.57 Unspecified NONE
6041998-06-02 11:33PSTYes???USGS715012.58 Unspecified NONE
6031998-06-02 11:28PSTYes???USGS569012.60 Unspecified NONE
6021998-06-02 11:24PSTYes???USGS414012.64 Unspecified NONE
6011998-06-02 11:19PSTYes???USGS262012.66 Unspecified NONE
6001998-06-02 11:15PSTYes???USGS92412.69 Unspecified NONE
5991998-06-02 11:11PSTYes???USGS89312.70 Unspecified NONE
5981998-06-02 11:07PSTYes???USGS-42312.71 Unspecified NONE
5971998-06-02 11:03PSTYes???USGS-163012.73 Unspecified NONE
5961998-06-02 10:52PSTYes???USGS-504012.79 Unspecified NONE
5951998-06-02 10:48PSTYes???USGS-576012.81 Unspecified NONE
5941998-06-02 10:44PSTYes???USGS-660012.82 Unspecified NONE
5931998-06-02 10:40PSTYes???USGS-756012.83 Unspecified NONE
5921998-06-02 10:36PSTYes???USGS-842012.85 Unspecified NONE
5911998-06-02 10:32PSTYes???USGS-827012.86 Unspecified NONE
5901998-06-02 10:28PSTYes???USGS-986012.88 Unspecified NONE
5891998-06-02 10:24PSTYes???USGS-1020012.89 Unspecified NONE
5881998-06-02 10:21PSTYes???USGS-1110012.88 Unspecified NONE
5871998-06-02 10:18PSTYes???USGS-1150012.89 Unspecified NONE
5861998-06-02 10:13PSTYes???USGS-1280012.90 Unspecified NONE
5851998-06-02 10:09PSTYes???USGS-1340012.90 Unspecified NONE
5841998-06-02 10:06PSTYes???USGS-1340012.91 Unspecified NONE
5831998-06-02 10:00PSTYes???USGS-1380012.93 Unspecified NONE
5821998-06-02 09:57PSTYes???USGS-1510012.93 Unspecified NONE
5811998-06-02 09:53PSTYes???USGS-1540012.93 Unspecified NONE
5801998-06-02 09:50PSTYes???USGS-1560012.92 Unspecified NONE
5791998-06-02 09:46PSTYes???USGS-1640012.92 Unspecified NONE
5781998-06-02 09:42PSTYes???USGS-1750012.93 Unspecified NONE
5771998-06-02 09:38PSTYes???USGS-1800012.93 Unspecified NONE
5761998-06-02 09:34PSTYes???USGS-1780012.93 Unspecified NONE
5751998-06-02 09:31PSTYes???USGS-1830012.93 Unspecified NONE
5741998-06-02 09:27PSTYes???USGS-1800012.93 Unspecified NONE
5731998-06-02 09:23PSTYes???USGS-1870012.93 Unspecified NONE
5721998-06-02 09:20PSTYes???USGS-1930012.92 Unspecified NONE
5711998-06-02 08:59PSTYes???USGS-2000012.91 Unspecified NONE
5701998-06-02 08:55PSTYes???USGS-2030012.90 Unspecified NONE
5691998-06-02 08:50PSTYes???USGS-2010012.89 Unspecified NONE
5681998-06-02 08:46PSTYes???USGS-2040012.88 Unspecified NONE
5671998-06-02 08:42PSTYes???USGS-2030012.87 Unspecified NONE
5661998-06-02 08:38PSTYes???USGS-2010012.87 Unspecified NONE
5651998-06-02 08:34PSTYes???USGS-1960012.86 Unspecified NONE
5641998-06-02 08:30PSTYes???USGS-1960012.85 Unspecified NONE
5631998-06-02 08:27PSTYes???USGS-1890012.84 Unspecified NONE
5621998-06-02 08:23PSTYes???USGS-1940012.83 Unspecified NONE
5611998-06-02 08:19PSTYes???USGS-1810012.82 Unspecified NONE
5601998-06-02 08:16PSTYes???USGS-1920012.80 Unspecified NONE
5591998-06-02 08:12PSTYes???USGS-1820012.78 Unspecified NONE
5581998-06-02 08:08PSTYes???USGS-1780012.76 Unspecified NONE
5571998-06-02 08:03PSTYes???USGS-1710012.74 Unspecified NONE
5561998-06-02 07:59PSTYes???USGS-1660012.72 Unspecified NONE
5551998-06-02 07:55PSTYes???USGS-1570012.70 Unspecified NONE
5541998-06-02 07:51PSTYes???USGS-1570012.68 Unspecified NONE
5531998-06-02 07:48PSTYes???USGS-1500012.67 Unspecified NONE
5521998-06-02 07:43PSTYes???USGS-1430012.64 Unspecified NONE
5511998-06-02 07:39PSTYes???USGS-1380012.61 Unspecified NONE
5501998-06-02 07:34PSTYes???USGS-1280012.60 Unspecified NONE
5491998-06-02 07:29PSTYes???USGS-1200012.58 Unspecified NONE
5481998-06-02 07:24PSTYes???USGS-1060012.55 Unspecified NONE
5471998-06-02 07:19PSTYes???USGS-938012.53 Unspecified NONE
5461998-06-02 07:15PSTYes???USGS-841012.51 Unspecified NONE
5451998-06-02 07:11PSTYes???USGS-617012.48 Unspecified NONE
5441998-06-02 07:07PSTYes???USGS-544012.46 Unspecified NONE
5431998-06-02 07:02PSTYes???USGS-368012.43 Unspecified NONE
5421998-06-02 06:58PSTYes???USGS-266012.41 Unspecified NONE
5411998-06-02 06:54PSTYes???USGS-131012.39 Unspecified NONE
5401998-06-02 06:50PSTYes???USGS-50412.37 Unspecified NONE
5391998-06-02 06:48PSTYes???USGS130012.36 Unspecified NONE
5381998-06-02 06:42PSTYes???USGS228012.33 Unspecified NONE
5371998-06-02 06:37PSTYes???USGS285012.30 Unspecified NONE
5361998-06-02 06:33PSTYes???USGS452012.28 Unspecified NONE
5351998-06-02 06:27PSTYes???USGS507012.25 Unspecified NONE
5341998-06-02 06:25PSTYes???USGS654012.24 Unspecified NONE
5331998-06-02 06:14PSTYes???USGS849012.20 Unspecified NONE
5321998-06-02 06:10PSTYes???USGS930012.18 Unspecified NONE
5311998-06-02 06:06PSTYes???USGS988012.16 Unspecified NONE
5301998-06-02 06:02PSTYes???USGS1050012.15 Unspecified NONE
5291998-06-02 05:56PSTYes???USGS1160012.13 Unspecified NONE
5281998-06-02 05:51PSTYes???USGS1210012.12 Unspecified NONE
5271998-06-02 05:46PSTYes???USGS1350012.11 Unspecified NONE
5261998-06-02 05:42PSTYes???USGS1400012.10 Unspecified NONE
5251998-06-02 05:38PSTYes???USGS1490012.10 Unspecified NONE
5241998-06-02 05:33PSTYes???USGS1520012.10 Unspecified NONE
5231998-06-02 05:27PSTYes???USGS1570012.09 Unspecified NONE
5221998-06-02 05:22PSTYes???USGS1630012.08 Unspecified NONE
5211998-06-02 05:15PSTYes???USGS1750012.09 Unspecified NONE
5201998-06-02 05:11PSTYes???USGS1740012.09 Unspecified NONE
5191998-06-02 05:06PSTYes???USGS1780012.09 Unspecified NONE
5181998-06-02 05:01PSTYes???USGS1830012.09 Unspecified NONE
5171998-06-02 04:55PSTYes???USGS1920012.10 Unspecified NONE
5161998-06-02 04:50PSTYes???USGS1970012.10 Unspecified NONE
5151998-06-02 04:45PSTYes???USGS1990012.11 Unspecified NONE
5141998-06-02 04:41PSTYes???USGS1980012.12 Unspecified NONE
5131998-06-02 04:37PSTYes???USGS2000012.13 Unspecified NONE
5121998-06-02 04:32PSTYes???USGS2000012.14 Unspecified NONE
5111998-06-02 04:26PSTYes???USGS2160012.16 Unspecified NONE
5101998-06-02 04:21PSTYes???USGS2090012.18 Unspecified NONE
5091998-06-02 04:16PSTYes???USGS2180012.20 Unspecified NONE
5081998-06-02 04:11PSTYes???USGS2200012.22 Unspecified NONE
5071998-06-02 04:06PSTYes???USGS2230012.24 Unspecified NONE
5061998-06-02 04:01PSTYes???USGS2250012.26 Unspecified NONE
5051998-06-02 03:56PSTYes???USGS2280012.28 Unspecified NONE
5041998-06-02 03:52PSTYes???USGS2300012.30 Unspecified NONE
5031998-06-02 03:48PSTYes???USGS2210012.31 Unspecified NONE
5021998-06-02 03:41PSTYes???USGS2260012.34 Unspecified NONE
5011998-06-02 03:38PSTYes???USGS2370012.36 Unspecified NONE
5001998-06-02 03:34PSTYes???USGS2320012.38 Unspecified NONE
4991998-03-12 16:36PSTYes???USGS-767013.87 Unspecified NONE
4981998-03-12 16:36PSTYes???USGS-764013.87 Unspecified NONE
4971998-03-12 16:31PSTYes???USGS-981013.91 Unspecified NONE
4961998-03-12 16:31PSTYes???USGS-969013.91 Unspecified NONE
4951998-03-12 16:25PSTYes???USGS-1210013.93 Unspecified NONE
4941998-03-12 16:25PSTYes???USGS-1180013.93 Unspecified NONE
4931998-03-12 16:20PSTYes???USGS-1360013.96 Unspecified NONE
4921998-03-12 16:20PSTYes???USGS-1330013.96 Unspecified NONE
4911998-03-12 16:14PSTYes???USGS-1570013.99 Unspecified NONE
4901998-03-12 16:13PSTYes???USGS-1620013.99 Unspecified NONE
4891998-03-12 16:06PSTYes???USGS-1790014.01 Unspecified NONE
4881998-03-12 16:06PSTYes???USGS-1760014.01 Unspecified NONE
4871998-03-12 16:01PSTYes???USGS-1970014.03 Unspecified NONE
4861998-03-12 16:00PSTYes???USGS-1960014.03 Unspecified NONE
4851998-03-12 15:56PSTYes???USGS-2070014.04 Unspecified NONE
4841998-03-12 15:56PSTYes???USGS-2050014.04 Unspecified NONE
4831998-03-12 15:50PSTYes???USGS-2220014.03 Unspecified NONE
4821998-03-12 15:50PSTYes???USGS-2210014.03 Unspecified NONE
4811998-03-12 15:43PSTYes???USGS-2380014.03 Unspecified NONE
4801998-03-12 15:43PSTYes???USGS-2360014.03 Unspecified NONE
4791998-03-12 15:14PSTYes???USGS-2960013.97 Unspecified NONE
4781998-03-12 15:14PSTYes???USGS-2930013.97 Unspecified NONE
4771998-03-12 15:07PSTYes???USGS-2980013.94 Unspecified NONE
4761998-03-12 15:01PSTYes???USGS-3080013.91 Unspecified NONE
4751998-03-12 15:01PSTYes???USGS-3000013.91 Unspecified NONE
4741998-03-12 14:55PSTYes???USGS-3120013.89 Unspecified NONE
4731998-03-12 14:55PSTYes???USGS-3090013.89 Unspecified NONE
4721998-03-12 14:43PSTYes???USGS-3360013.84 Unspecified NONE
4711998-03-12 14:43PSTYes???USGS-3290013.84 Unspecified NONE
4701998-03-12 14:37PSTYes???USGS-3330013.80 Unspecified NONE
4691998-03-12 14:36PSTYes???USGS-3170013.80 Unspecified NONE
4681998-03-12 14:31PSTYes???USGS-3410013.77 Unspecified NONE
4671998-03-12 14:31PSTYes???USGS-3210013.77 Unspecified NONE
4661998-03-12 14:26PSTYes???USGS-3370013.74 Unspecified NONE
4651998-03-12 14:26PSTYes???USGS-3180013.74 Unspecified NONE
4641998-03-12 14:20PSTYes???USGS-3450013.70 Unspecified NONE
4631998-03-12 14:20PSTYes???USGS-3310013.70 Unspecified NONE
4621998-03-12 14:14PSTYes???USGS-3390013.66 Unspecified NONE
4611998-03-12 14:14PSTYes???USGS-3250013.66 Unspecified NONE
4601998-03-12 14:06PSTYes???USGS-3280013.61 Unspecified NONE
4591998-03-12 14:05PSTYes???USGS-3380013.61 Unspecified NONE
4581998-03-12 13:59PSTYes???USGS-3250013.57 Unspecified NONE
4571998-03-12 13:59PSTYes???USGS-3190013.57 Unspecified NONE
4561997-12-11 15:32PSTYes???USGS720012.75 Unspecified NONE
4551997-12-11 15:29PSTYes???USGS494012.78 Unspecified NONE
4541997-12-11 15:18PSTYes???USGS-29012.90 Unspecified NONE
4531997-12-11 15:14PSTYes???USGS-206012.94 Unspecified NONE
4521997-12-11 15:00PSTYes???USGS-771013.10 Unspecified NONE
4511997-12-11 14:57PSTYes???USGS-874013.13 Unspecified NONE
4501997-12-11 14:46PSTYes???USGS-1280013.24 Unspecified NONE
4491997-12-11 14:42PSTYes???USGS-1440013.27 Unspecified NONE
4481997-12-11 14:29PSTYes???USGS-1820013.39 Unspecified NONE
4471997-12-11 14:25PSTYes???USGS-2040013.41 Unspecified NONE
4461997-12-11 14:13PSTYes???USGS-2300013.48 Unspecified NONE
4451997-12-11 14:09PSTYes???USGS-2440013.49 Unspecified NONE
4441997-12-11 13:57PSTYes???USGS-2760013.52 Unspecified NONE
4431997-12-11 13:52PSTYes???USGS-2870013.53 Unspecified NONE
4421997-12-11 13:37PSTYes???USGS-2980013.53 Unspecified NONE
4411997-12-11 13:33PSTYes???USGS-3110013.53 Unspecified NONE
4401997-12-11 13:17PSTYes???USGS-3310013.48 Unspecified NONE
4391997-12-11 13:10PSTYes???USGS-3360013.46 Unspecified NONE
4381997-12-11 12:50PSTYes???USGS-3430013.37 Unspecified NONE
4371997-12-11 12:44PSTYes???USGS-3490013.34 Unspecified NONE
4361997-12-11 12:24PSTYes???USGS-3560013.19 Unspecified NONE
4351997-12-11 12:18PSTYes???USGS-3550013.14 Unspecified NONE
4341997-08-21 14:54PSTYes???USGS-2270011.97 Unspecified NONE
4331997-08-21 14:51PSTYes???USGS-2130011.94 Unspecified NONE
4321997-08-21 14:47PSTYes???USGS-2030011.92 Unspecified NONE
4311997-08-21 14:44PSTYes???USGS-1910011.88 Unspecified NONE
4301997-08-21 14:40PSTYes???USGS-1800011.84 Unspecified NONE
4291997-08-21 14:29PSTYes???USGS-1520011.72 Unspecified NONE
4281997-08-21 14:25PSTYes???USGS-1440011.67 Unspecified NONE
4271997-08-21 14:21PSTYes???USGS-1210011.62 Unspecified NONE
4261997-08-21 14:17PSTYes???USGS-1000011.57 Unspecified NONE
4251997-08-21 14:13PSTYes???USGS-834011.51 Unspecified NONE
4241997-08-21 14:09PSTYes???USGS-616011.44 Unspecified NONE
4231997-08-21 14:05PSTYes???USGS-444011.38 Unspecified NONE
4221997-08-21 14:01PSTYes???USGS-234011.32 Unspecified NONE
4211997-08-21 13:57PSTYes???USGS-23711.26 Unspecified NONE
4201997-08-21 13:52PSTYes???USGS-211011.18 Unspecified NONE
4191997-08-21 13:48PSTYes???USGS410011.11 Unspecified NONE
4181997-08-21 13:44PSTYes???USGS570011.05 Unspecified NONE
4171997-08-21 13:40PSTYes???USGS751010.99 Unspecified NONE
4161997-08-21 13:36PSTYes???USGS887010.93 Unspecified NONE
4151997-08-21 13:32PSTYes???USGS1060010.87 Unspecified NONE
4141997-08-21 13:27PSTYes???USGS1160010.81 Unspecified NONE
4131997-08-21 13:23PSTYes???USGS1310010.75 Unspecified NONE
4121997-08-21 13:17PSTYes???USGS1520010.70 Unspecified NONE
4111997-08-21 13:12PSTYes???USGS1670010.65 Unspecified NONE
4101997-08-21 13:07PSTYes???USGS1770010.61 Unspecified NONE
4091997-08-21 13:03PSTYes???USGS1840010.58 Unspecified NONE
4081997-08-21 12:59PSTYes???USGS1860010.56 Unspecified NONE
4071997-08-21 12:55PSTYes???USGS1950010.55 Unspecified NONE
4061997-08-21 12:51PSTYes???USGS1990010.54 Unspecified NONE
4051997-08-21 12:46PSTYes???USGS2110010.53 Unspecified NONE
4041997-08-21 12:41PSTYes???USGS2080010.53 Unspecified NONE
4031997-08-21 12:35PSTYes???USGS2200010.54 Unspecified NONE
4021997-08-21 12:30PSTYes???USGS2200010.55 Unspecified NONE
4011997-08-21 12:25PSTYes???USGS2220010.56 Unspecified NONE
4001997-08-21 12:20PSTYes???USGS2310010.58 Unspecified NONE
3991997-08-21 12:15PSTYes???USGS2380010.60 Unspecified NONE
3981997-08-21 12:00PSTYes???USGS2430010.68 Unspecified NONE
3971997-08-21 11:55PSTYes???USGS2430010.71 Unspecified NONE
3961997-08-21 11:50PSTYes???USGS2440010.74 Unspecified NONE
3951997-08-21 11:45PSTYes???USGS2480010.78 Unspecified NONE
3941997-08-21 11:39PSTYes???USGS2480010.83 Unspecified NONE
3931997-08-21 11:35PSTYes???USGS2470010.86 Unspecified NONE
3921997-08-21 11:00PSTYes???USGS2570011.14 Unspecified NONE
3911997-08-21 10:54PSTYes???USGS2630011.19 Unspecified NONE
3901997-08-21 10:48PSTYes???USGS2530011.24 Unspecified NONE
3891997-08-21 10:43PSTYes???USGS2560011.29 Unspecified NONE
3881997-08-21 10:38PSTYes???USGS2600011.33 Unspecified NONE
3871997-08-21 10:32PSTYes???USGS2580011.38 Unspecified NONE
3861997-08-20 14:51PSTYes???USGS-2740012.19 Unspecified NONE
3851997-08-20 14:46PSTYes???USGS-2730012.16 Unspecified NONE
3841997-08-20 14:42PSTYes???USGS-2710012.12 Unspecified NONE
3831997-08-20 14:37PSTYes???USGS-2640012.09 Unspecified NONE
3821997-08-20 10:00PSTYes???USGS2650011.39 Unspecified NONE
3811997-08-20 09:54PSTYes???USGS2740011.45 Unspecified NONE
3801997-08-20 09:48PSTYes???USGS2770011.50 Unspecified NONE
3791997-08-20 09:42PSTYes???USGS2750011.56 Unspecified NONE
3781997-08-20 09:37PSTYes???USGS2700011.61 Unspecified NONE
3771997-08-20 09:31PSTYes???USGS2720011.66 Unspecified NONE
3761997-08-20 09:25PSTYes???USGS2710011.71 Unspecified NONE
3751997-08-20 09:19PSTYes???USGS2730011.76 Unspecified NONE
3741997-08-14 10:31PSTYes???USGS-2390012.16 Unspecified NONE
3731997-08-14 10:28PSTYes???USGS-2340012.14 Unspecified NONE
3721997-08-14 10:24PSTYes???USGS-2300012.13 Unspecified NONE
3711997-08-14 10:21PSTYes???USGS-2270012.10 Unspecified NONE
3701997-08-14 10:18PSTYes???USGS-2180012.09 Unspecified NONE
3691997-08-14 10:14PSTYes???USGS-2150012.06 Unspecified NONE
3681997-08-14 10:11PSTYes???USGS-2130012.04 Unspecified NONE
3671997-08-14 10:08PSTYes???USGS-2040012.01 Unspecified NONE
3661997-08-14 10:05PSTYes???USGS-1950011.99 Unspecified NONE
3651997-08-14 10:01PSTYes???USGS-1860011.96 Unspecified NONE
3641997-08-14 09:58PSTYes???USGS-1830011.93 Unspecified NONE
3631997-08-14 09:54PSTYes???USGS-1680011.91 Unspecified NONE
3621997-08-14 09:51PSTYes???USGS-1740011.89 Unspecified NONE
3611997-08-14 09:48PSTYes???USGS-1590011.87 Unspecified NONE
3601997-08-14 09:35PSTYes???USGS-1180011.73 Unspecified NONE
3591997-08-14 09:32PSTYes???USGS-961011.69 Unspecified NONE
3581997-08-14 09:29PSTYes???USGS-968011.66 Unspecified NONE
3571997-08-14 09:26PSTYes???USGS-921011.63 Unspecified NONE
3561997-08-14 09:22PSTYes???USGS-772011.60 Unspecified NONE
3551997-08-14 09:19PSTYes???USGS-622011.56 Unspecified NONE
3541997-08-14 09:16PSTYes???USGS-573011.53 Unspecified NONE
3531997-08-14 09:13PSTYes???USGS-392011.49 Unspecified NONE
3521997-08-14 09:10PSTYes???USGS-117011.45 Unspecified NONE
3511997-08-14 09:07PSTYes???USGS-115011.41 Unspecified NONE
3501997-08-14 09:04PSTYes???USGS92011.37 Unspecified NONE
3491997-08-14 08:59PSTYes???USGS254011.31 Unspecified NONE
3481997-08-14 08:56PSTYes???USGS392011.26 Unspecified NONE
3471997-08-14 08:53PSTYes???USGS474011.24 Unspecified NONE
3461997-08-14 08:40PSTYes???USGS931011.14 Unspecified NONE
3451997-08-14 08:37PSTYes???USGS983011.12 Unspecified NONE
3441997-08-14 08:34PSTYes???USGS1140011.09 Unspecified NONE
3431997-08-14 08:31PSTYes???USGS1200011.06 Unspecified NONE
3421997-08-14 08:27PSTYes???USGS1290011.04 Unspecified NONE
3411997-08-14 08:24PSTYes???USGS1300011.03 Unspecified NONE
3401997-08-14 08:21PSTYes???USGS1380011.01 Unspecified NONE
3391997-08-14 08:18PSTYes???USGS1410010.99 Unspecified NONE
3381997-08-14 08:15PSTYes???USGS1530010.98 Unspecified NONE
3371997-08-14 08:12PSTYes???USGS1620010.97 Unspecified NONE
3361997-08-14 08:09PSTYes???USGS1650010.95 Unspecified NONE
3351997-08-14 08:06PSTYes???USGS1730010.93 Unspecified NONE
3341997-08-14 08:03PSTYes???USGS1750010.93 Unspecified NONE
3331997-08-14 07:59PSTYes???USGS1780010.92 Unspecified NONE
3321997-08-13 13:29PSTYes???USGS-1150012.86 Unspecified NONE
3311997-08-13 13:26PSTYes???USGS-1270012.87 Unspecified NONE
3301997-08-13 13:24PSTYes???USGS-1310012.87 Unspecified NONE
3291997-08-13 13:21PSTYes???USGS-1480012.88 Unspecified NONE
3281997-08-13 11:34PSTYes???USGS-2420012.65 Unspecified NONE
3271997-08-13 11:30PSTYes???USGS-2440012.63 Unspecified NONE
3261997-08-13 11:25PSTYes???USGS-2520012.60 Unspecified NONE
3251997-08-13 11:21PSTYes???USGS-2530012.57 Unspecified NONE
3241997-08-13 11:17PSTYes???USGS-2570012.55 Unspecified NONE
3231997-08-13 11:12PSTYes???USGS-2560012.53 Unspecified NONE
3221997-08-13 11:08PSTYes???USGS-2540012.51 Unspecified NONE
3211997-08-13 11:03PSTYes???USGS-2610012.49 Unspecified NONE
3201997-08-13 10:59PSTYes???USGS-2540012.47 Unspecified NONE
3191997-08-13 10:55PSTYes???USGS-2610012.45 Unspecified NONE
3181997-08-13 10:50PSTYes???USGS-2650012.43 Unspecified NONE
3171997-08-13 10:45PSTYes???USGS-2620012.40 Unspecified NONE
3161997-08-13 10:41PSTYes???USGS-2620012.38 Unspecified NONE
3151997-08-13 10:36PSTYes???USGS-2590012.37 Unspecified NONE
3141997-08-13 10:20PSTYes???USGS-2640012.28 Unspecified NONE
3131997-08-13 10:14PSTYes???USGS-2550012.25 Unspecified NONE
3121997-08-13 10:10PSTYes???USGS-2480012.22 Unspecified NONE
3111997-08-13 10:05PSTYes???USGS-2540012.20 Unspecified NONE
3101997-08-13 10:00PSTYes???USGS-2450012.17 Unspecified NONE
3091997-08-13 09:55PSTYes???USGS-2380012.15 Unspecified NONE
3081997-08-13 09:50PSTYes???USGS-2390012.13 Unspecified NONE
3071997-08-13 09:45PSTYes???USGS-2380012.10 Unspecified NONE
3061997-08-13 09:40PSTYes???USGS-2270012.07 Unspecified NONE
3051997-08-13 09:35PSTYes???USGS-2230012.04 Unspecified NONE
3041997-08-13 09:31PSTYes???USGS-2050012.00 Unspecified NONE
3031997-08-13 09:26PSTYes???USGS-2100011.98 Unspecified NONE
3021997-08-13 09:20PSTYes???USGS-2000011.95 Unspecified NONE
3011997-08-13 09:15PSTYes???USGS-1950011.92 Unspecified NONE
3001997-08-13 09:00PSTYes???USGS-1650011.82 Unspecified NONE
2991997-08-13 08:55PSTYes???USGS-1550011.78 Unspecified NONE
2981997-08-13 08:51PSTYes???USGS-1310011.74 Unspecified NONE
2971997-08-13 08:47PSTYes???USGS-1280011.71 Unspecified NONE
2961997-08-13 08:44PSTYes???USGS-1160011.68 Unspecified NONE
2951997-08-13 08:40PSTYes???USGS-1080011.65 Unspecified NONE
2941997-08-13 08:36PSTYes???USGS-952011.61 Unspecified NONE
2931997-08-13 08:33PSTYes???USGS-822011.58 Unspecified NONE
2921997-08-13 08:29PSTYes???USGS-653011.55 Unspecified NONE
2911997-08-13 08:24PSTYes???USGS-436011.50 Unspecified NONE
2901997-08-13 08:20PSTYes???USGS-327011.46 Unspecified NONE
2891997-08-13 08:16PSTYes???USGS-133011.42 Unspecified NONE
2881997-08-13 08:11PSTYes???USGS48511.38 Unspecified NONE
2871997-08-13 08:07PSTYes???USGS180011.34 Unspecified NONE
2861996-11-25 19:21PSTYes???USGS2960011.44 Unspecified NONE
2851996-11-25 19:18PSTYes???USGS2880011.47 Unspecified NONE
2841996-11-25 19:13PSTYes???USGS2950011.51 Unspecified NONE
2831996-11-25 19:09PSTYes???USGS2890011.55 Unspecified NONE
2821996-11-25 19:06PSTYes???USGS2880011.58 Unspecified NONE
2811996-11-25 19:02PSTYes???USGS2790011.61 Unspecified NONE
2801996-11-25 18:59PSTYes???USGS2800011.63 Unspecified NONE
2791996-11-25 18:55PSTYes???USGS2750011.67 Unspecified NONE
2781996-11-25 18:52PSTYes???USGS2780011.70 Unspecified NONE
2771996-11-25 18:48PSTYes???USGS2790011.73 Unspecified NONE
2761996-11-25 18:44PSTYes???USGS2710011.76 Unspecified NONE
2751996-11-25 18:40PSTYes???USGS2680011.80 Unspecified NONE
2741996-11-25 18:37PSTYes???USGS2610011.82 Unspecified NONE
2731996-11-25 18:33PSTYes???USGS2530011.85 Unspecified NONE
2721996-11-25 18:30PSTYes???USGS2550011.87 Unspecified NONE
2711996-11-25 18:26PSTYes???USGS2520011.91 Unspecified NONE
2701996-11-25 18:22PSTYes???USGS2450011.96 Unspecified NONE
2691996-11-25 18:19PSTYes???USGS2360011.99 Unspecified NONE
2681996-11-25 18:14PSTYes???USGS2330012.04 Unspecified NONE
2671996-11-25 18:11PSTYes???USGS2190012.08 Unspecified NONE
2661996-11-25 18:08PSTYes???USGS2160012.11 Unspecified NONE
2651996-11-25 18:03PSTYes???USGS1990012.16 Unspecified NONE
2641996-11-25 17:59PSTYes???USGS1960012.22 Unspecified NONE
2631996-11-25 13:21PSTYes???USGS-3520012.39 Unspecified NONE
2621996-11-25 13:17PSTYes???USGS-3500012.36 Unspecified NONE
2611996-11-25 13:13PSTYes???USGS-3570012.33 Unspecified NONE
2601996-11-25 13:10PSTYes???USGS-3490012.31 Unspecified NONE
2591996-11-25 13:07PSTYes???USGS-3440012.28 Unspecified NONE
2581996-11-25 13:03PSTYes???USGS-3390012.25 Unspecified NONE
2571996-11-25 12:59PSTYes???USGS-3370012.21 Unspecified NONE
2561996-11-25 12:55PSTYes???USGS-3390012.18 Unspecified NONE
2551996-11-25 12:51PSTYes???USGS-3420012.15 Unspecified NONE
2541996-11-25 12:47PSTYes???USGS-3230012.11 Unspecified NONE
2531996-11-25 12:45PSTYes???USGS-3230012.11 Unspecified NONE
2521996-11-25 12:41PSTYes???USGS-3280012.07 Unspecified NONE
2511996-11-25 12:37PSTYes???USGS-3130012.05 Unspecified NONE
2501996-11-25 12:33PSTYes???USGS-3180012.02 Unspecified NONE
2491996-11-25 12:30PSTYes???USGS-3070012.00 Unspecified NONE
2481996-11-25 12:26PSTYes???USGS-3080011.97 Unspecified NONE
2471996-11-25 12:22PSTYes???USGS-2990011.94 Unspecified NONE
2461996-11-25 12:18PSTYes???USGS-2950011.90 Unspecified NONE
2451996-11-25 12:09PSTYes???USGS-2760011.84 Unspecified NONE
2441996-11-25 12:05PSTYes???USGS-2710011.82 Unspecified NONE
2431996-11-25 12:01PSTYes???USGS-2590011.80 Unspecified NONE
2421996-11-25 11:57PSTYes???USGS-2520011.77 Unspecified NONE
2411996-11-25 11:53PSTYes???USGS-2530011.73 Unspecified NONE
2401996-11-25 11:49PSTYes???USGS-2450011.70 Unspecified NONE
2391996-11-25 11:44PSTYes???USGS-2280011.66 Unspecified NONE
2381996-11-25 11:40PSTYes???USGS-2100011.61 Unspecified NONE
2371996-11-25 11:35PSTYes???USGS-2010011.56 Unspecified NONE
2361996-11-25 11:31PSTYes???USGS-1880011.52 Unspecified NONE
2351996-11-25 11:28PSTYes???USGS-1780011.49 Unspecified NONE
2341996-11-25 11:23PSTYes???USGS-1560011.44 Unspecified NONE
2331996-11-25 11:19PSTYes???USGS-1450011.39 Unspecified NONE
2321996-11-25 11:16PSTYes???USGS-1270011.36 Unspecified NONE
2311996-11-25 11:12PSTYes???USGS-1090011.32 Unspecified NONE
2301996-11-25 11:09PSTYes???USGS-934011.28 Unspecified NONE
2291996-11-25 11:06PSTYes???USGS-816011.24 Unspecified NONE
2281996-11-25 11:02PSTYes???USGS-622011.20 Unspecified NONE
2271996-11-25 10:58PSTYes???USGS-444011.15 Unspecified NONE
2261996-11-25 10:54PSTYes???USGS-262011.10 Unspecified NONE
2251996-11-25 10:49PSTYes???USGS-27811.04 Unspecified NONE
2241996-11-25 10:46PSTYes???USGS176011.01 Unspecified NONE
2231996-11-25 10:43PSTYes???USGS329010.98 Unspecified NONE
2221996-11-25 10:39PSTYes???USGS422010.94 Unspecified NONE
2211996-11-25 10:36PSTYes???USGS532010.91 Unspecified NONE
2201996-11-25 10:33PSTYes???USGS642010.88 Unspecified NONE
2191996-11-25 10:30PSTYes???USGS727010.85 Unspecified NONE
2181996-11-25 10:27PSTYes???USGS859010.82 Unspecified NONE
2171996-11-25 10:23PSTYes???USGS969010.79 Unspecified NONE
2161996-11-25 10:19PSTYes???USGS1060010.77 Unspecified NONE
2151996-11-25 10:16PSTYes???USGS1170010.74 Unspecified NONE
2141996-11-25 10:13PSTYes???USGS1260010.71 Unspecified NONE
2131996-11-25 10:10PSTYes???USGS1330010.69 Unspecified NONE
2121996-11-25 10:05PSTYes???USGS1420010.67 Unspecified NONE
2111996-11-25 10:01PSTYes???USGS1520010.66 Unspecified NONE
2101996-11-20 15:23PSTYes???USGS2460011.90 Unspecified NONE
2091996-11-20 15:19PSTYes???USGS2390011.94 Unspecified NONE
2081996-11-20 15:15PSTYes???USGS2380011.98 Unspecified NONE
2071996-11-20 15:12PSTYes???USGS2330012.01 Unspecified NONE
2061996-11-20 15:09PSTYes???USGS2270012.05 Unspecified NONE
2051996-11-20 15:05PSTYes???USGS2130012.08 Unspecified NONE
2041996-11-20 15:01PSTYes???USGS2120012.12 Unspecified NONE
2031996-11-20 14:58PSTYes???USGS1980012.15 Unspecified NONE
2021996-11-20 14:54PSTYes???USGS1910012.20 Unspecified NONE
2011996-11-20 14:50PSTYes???USGS1770012.25 Unspecified NONE
2001996-11-20 14:47PSTYes???USGS1660012.29 Unspecified NONE
1991996-11-20 14:44PSTYes???USGS1570012.32 Unspecified NONE
1981996-11-20 14:40PSTYes???USGS1450012.36 Unspecified NONE
1971996-11-20 14:37PSTYes???USGS1280012.40 Unspecified NONE
1961996-11-20 14:34PSTYes???USGS1180012.43 Unspecified NONE
1951996-11-20 14:31PSTYes???USGS969012.47 Unspecified NONE
1941996-11-20 14:28PSTYes???USGS844012.51 Unspecified NONE
1931996-11-20 14:24PSTYes???USGS672012.56 Unspecified NONE
1921996-11-20 14:21PSTYes???USGS486012.60 Unspecified NONE
1911996-11-20 14:17PSTYes???USGS345012.64 Unspecified NONE
1901996-11-20 14:07PSTYes???USGS-195012.73 Unspecified NONE
1891996-11-20 14:03PSTYes???USGS-415012.77 Unspecified NONE
1881996-11-20 13:58PSTYes???USGS-614012.82 Unspecified NONE
1871996-11-20 13:54PSTYes???USGS-850012.86 Unspecified NONE
1861996-11-20 13:49PSTYes???USGS-1480012.91 Unspecified NONE
1851996-11-20 13:45PSTYes???USGS-1220012.94 Unspecified NONE
1841996-11-20 13:41PSTYes???USGS-1320012.98 Unspecified NONE
1831996-11-20 13:37PSTYes???USGS-1490013.01 Unspecified NONE
1821996-11-14 11:15PSTYes???USGS2200010.83 Unspecified NONE
1811996-11-14 11:11PSTYes???USGS2240010.83 Unspecified NONE
1801996-11-14 11:06PSTYes???USGS2250010.84 Unspecified NONE
1791996-11-14 11:02PSTYes???USGS2240010.85 Unspecified NONE
1781996-11-14 10:58PSTYes???USGS2290010.87 Unspecified NONE
1771996-11-14 10:53PSTYes???USGS2290010.89 Unspecified NONE
1761996-11-14 10:49PSTYes???USGS2250010.91 Unspecified NONE
1751996-11-14 10:44PSTYes???USGS2300010.93 Unspecified NONE
1741996-11-14 10:39PSTYes???USGS2240010.96 Unspecified NONE
1731996-11-14 10:34PSTYes???USGS2210010.98 Unspecified NONE
1721996-11-14 10:29PSTYes???USGS2180011.01 Unspecified NONE
1711996-11-14 10:24PSTYes???USGS2250011.05 Unspecified NONE
1701996-11-14 10:17PSTYes???USGS2140011.08 Unspecified NONE
1691996-11-14 10:12PSTYes???USGS2200011.11 Unspecified NONE
1681996-11-14 10:08PSTYes???USGS2030011.14 Unspecified NONE
1671996-11-14 10:03PSTYes???USGS2000011.17 Unspecified NONE
1661996-11-14 09:58PSTYes???USGS1990011.20 Unspecified NONE
1651996-11-13 15:56PSTYes???USGS-3360013.03 Unspecified NONE
1641996-11-13 15:29PSTYes???USGS-3480012.84 Unspecified NONE
1631996-11-13 15:22PSTYes???USGS-3480012.79 Unspecified NONE
1621996-11-13 15:16PSTYes???USGS-3500012.74 Unspecified NONE
1611996-11-13 15:10PSTYes???USGS-3490012.70 Unspecified NONE
1601996-11-13 15:04PSTYes???USGS-3440012.66 Unspecified NONE
1591996-11-13 15:00PSTYes???USGS-3490012.63 Unspecified NONE
1581996-11-13 14:55PSTYes???USGS-3420012.59 Unspecified NONE
1571996-11-13 14:48PSTYes???USGS-3550012.54 Unspecified NONE
1561996-11-13 14:42PSTYes???USGS-3430012.49 Unspecified NONE
1551996-11-13 14:38PSTYes???USGS-3360012.45 Unspecified NONE
1541996-11-13 14:33PSTYes???USGS-3480012.41 Unspecified NONE
1531996-11-13 14:27PSTYes???USGS-3420012.37 Unspecified NONE
1521996-11-13 14:21PSTYes???USGS-3290012.32 Unspecified NONE
1511996-11-13 14:16PSTYes???USGS-3200012.28 Unspecified NONE
1501996-11-13 14:10PSTYes???USGS-3230012.25 Unspecified NONE
1491996-11-13 13:56PSTYes???USGS-3120012.15 Unspecified NONE
1481996-11-13 13:50PSTYes???USGS-3030012.10 Unspecified NONE
1471996-11-13 13:45PSTYes???USGS-2980012.07 Unspecified NONE
1461996-11-13 13:39PSTYes???USGS-2870012.03 Unspecified NONE
1451996-11-13 13:33PSTYes???USGS-2880011.99 Unspecified NONE
1441996-11-13 13:27PSTYes???USGS-2810011.95 Unspecified NONE
1431996-11-13 13:21PSTYes???USGS-2650011.90 Unspecified NONE
1421996-04-23 13:44PSTYes???USGS2160010.01 Unspecified NONE
1411996-04-23 13:40PSTYes???USGS2200010.03 Unspecified NONE
1401996-04-23 13:36PSTYes???USGS2200010.05 Unspecified NONE
1391996-04-23 13:32PSTYes???USGS229010.07 Unspecified NONE
1381996-04-23 13:28PSTYes???USGS2200010.09 Unspecified NONE
1371995-04-10 11:19PSTYes???USGS-2040012.45 Unspecified NONE
1361995-04-10 11:16PSTYes???USGS-2050012.44 Unspecified NONE
1351995-04-10 11:14PSTYes???USGS-2050012.44 Unspecified NONE
1341995-04-10 11:12PSTYes???USGS-2050012.43 Unspecified NONE
1331995-04-10 11:09PSTYes???USGS-2080012.43 Unspecified NONE
1321995-04-10 11:07PSTYes???USGS-2100012.42 Unspecified NONE
1311995-04-10 11:04PSTYes???USGS-2110012.42 Unspecified NONE
1301995-04-10 11:02PSTYes???USGS-2160012.41 Unspecified NONE
1291995-04-10 10:59PSTYes???USGS-2170012.40 Unspecified NONE
1281995-04-10 10:57PSTYes???USGS-2210012.39 Unspecified NONE
1271995-04-10 10:54PSTYes???USGS-2230012.39 Unspecified NONE
1261995-04-10 10:52PSTYes???USGS-2130012.38 Unspecified NONE
1251995-04-10 10:49PSTYes???USGS-2270012.37 Unspecified NONE
1241995-03-16 15:54PSTYes???USGS-3160014.95 Unspecified NONE
1231995-03-16 15:51PSTYes???USGS-3160014.97 Unspecified NONE
1221995-03-16 15:48PSTYes???USGS-3290014.97 Unspecified NONE
1211995-03-16 15:46PSTYes???USGS-3280014.97 Unspecified NONE
1201995-03-16 15:43PSTYes???USGS-3320014.97 Unspecified NONE
1191995-03-16 15:40PSTYes???USGS-3370014.98 Unspecified NONE
1181995-03-16 15:37PSTYes???USGS-3410014.98 Unspecified NONE
1171995-03-16 15:34PSTYes???USGS-3450014.98 Unspecified NONE
1161995-03-16 15:31PSTYes???USGS-3620014.99 Unspecified NONE
1151995-03-16 15:28PSTYes???USGS-3660014.99 Unspecified NONE
1141995-03-16 15:25PSTYes???USGS-3700014.99 Unspecified NONE
1131995-03-16 15:22PSTYes???USGS-3780014.99 Unspecified NONE
1121995-03-16 15:20PSTYes???USGS-3790014.99 Unspecified NONE
1111995-03-16 15:17PSTYes???USGS-3820014.99 Unspecified NONE
1101995-03-16 15:14PSTYes???USGS-3790014.99 Unspecified NONE
1091995-03-16 15:10PSTYes???USGS-3850014.99 Unspecified NONE
1081995-03-16 15:07PSTYes???USGS-3960014.99 Unspecified NONE
1071995-03-16 15:03PSTYes???USGS-3930014.99 Unspecified NONE
1061995-03-16 15:00PSTYes???USGS-4040014.98 Unspecified NONE
1051995-03-16 14:57PSTYes???USGS-4030014.98 Unspecified NONE
1041995-03-16 14:54PSTYes???USGS-4090014.98 Unspecified NONE
1031995-03-16 14:51PSTYes???USGS-4100014.97 Unspecified NONE
1021995-03-16 14:46PSTYes???USGS-4240014.97 Unspecified NONE
1011995-03-16 14:43PSTYes???USGS-4210014.96 Unspecified NONE
1001995-03-16 14:40PSTYes???USGS-4230014.95 Unspecified NONE
991995-03-16 14:38PSTYes???USGS-4160014.95 Unspecified NONE
981995-03-16 14:35PSTYes???USGS-4360014.94 Unspecified NONE
971995-03-16 14:30PSTYes???USGS-4300014.93 Unspecified NONE
961995-03-16 14:24PSTYes???USGS-4320014.91 Unspecified NONE
951995-03-16 14:15PSTYes???USGS-4460014.86 Unspecified NONE
941995-03-16 14:11PSTYes???USGS-4480014.85 Unspecified NONE
931995-03-16 14:08PSTYes???USGS-4530014.73 Unspecified NONE
921995-03-16 14:04PSTYes???USGS-4380014.82 Unspecified NONE
911995-03-16 14:00PSTYes???USGS-4470014.80 Unspecified NONE
901995-03-16 13:57PSTYes???USGS-4490014.78 Unspecified NONE
891995-03-16 13:53PSTYes???USGS-4550014.75 Unspecified NONE
881995-03-16 13:49PSTYes???USGS-4500014.71 Unspecified NONE
871995-03-16 13:44PSTYes???USGS-4470014.66 Unspecified NONE
861995-03-16 13:41PSTYes???USGS-4510014.63 Unspecified NONE
851995-03-16 13:38PSTYes???USGS-4510014.60 Unspecified NONE
841995-03-16 13:34PSTYes???USGS-4590014.56 Unspecified NONE
831995-03-16 13:31PSTYes???USGS-4430014.54 Unspecified NONE
821995-03-16 13:31PSTYes???USGS-4430014.54 Unspecified NONE
811995-03-16 13:24PSTYes???USGS-4550014.49 Unspecified NONE
801995-03-16 13:21PSTYes???USGS-4570014.46 Unspecified NONE
791995-03-16 13:17PSTYes???USGS-4550014.43 Unspecified NONE
781995-03-16 13:14PSTYes???USGS-4410014.40 Unspecified NONE
771995-03-16 13:11PSTYes???USGS-4520014.38 Unspecified NONE
761995-01-20 11:43PSTYes???USGS1490012.30 Unspecified NONE
751995-01-20 11:40PSTYes???USGS1470012.32 Unspecified NONE
741995-01-20 11:36PSTYes???USGS1560012.33 Unspecified NONE
731995-01-20 11:33PSTYes???USGS1530012.35 Unspecified NONE
721995-01-19 15:11PSTYes???USGS-3680013.22 Unspecified NONE
711995-01-19 15:06PSTYes???USGS-3580013.18 Unspecified NONE
701995-01-19 15:00PSTYes???USGS-3590013.14 Unspecified NONE
691995-01-19 14:56PSTYes???USGS-3580013.10 Unspecified NONE
681995-01-19 14:52PSTYes???USGS-3550013.07 Unspecified NONE
671994-11-04 13:33PSTYes???USGS-3160012.36 Unspecified NONE
661994-11-04 12:23PSTYes???USGS-2570011.79 Unspecified NONE
651994-11-04 12:19PSTYes???USGS-2450011.77 Unspecified NONE
641994-11-04 12:16PSTYes???USGS-2480011.74 Unspecified NONE
631994-11-04 12:12PSTYes???USGS-2360011.70 Unspecified NONE
621994-11-04 12:08PSTYes???USGS-2270011.67 Unspecified NONE
611994-11-04 12:04PSTYes???USGS-2140011.63 Unspecified NONE
601994-11-04 10:13PSTYes???USGS1640010.40 Unspecified NONE
591994-11-04 10:09PSTYes???USGS1690010.39 Unspecified NONE
581994-11-04 10:05PSTYes???USGS1800010.37 Unspecified NONE
571994-11-04 10:01PSTYes???USGS1880010.36 Unspecified NONE
561994-11-04 09:56PSTYes???USGS1940010.35 Unspecified NONE
551994-11-04 09:52PSTYes???USGS1970010.35 Unspecified NONE
541994-11-04 01:35PSTYes???USGS-3220012.38 Unspecified NONE
531994-08-05 13:02PSTYes???USGS-2700011.37 Unspecified NONE
521994-08-05 12:59PSTYes???USGS-2740011.35 Unspecified NONE
511994-08-05 11:59PSTYes???USGS-1540010.94 Unspecified NONE
501994-08-05 11:55PSTYes???USGS-1450010.89 Unspecified NONE
491994-08-05 11:53PSTYes???USGS-1270010.86 Unspecified NONE
481994-08-05 11:50PSTYes???USGS-1210010.83 Unspecified NONE
471994-08-05 11:47PSTYes???USGS-1110010.80 Unspecified NONE
461994-08-05 11:44PSTYes???USGS-1020010.77 Unspecified NONE
451994-08-05 11:41PSTYes???USGS-879010.74 Unspecified NONE
441994-08-05 11:38PSTYes???USGS-800010.70 Unspecified NONE
431994-08-05 11:35PSTYes???USGS-579010.65 Unspecified NONE
421994-08-05 11:28PSTYes???USGS-312010.60 Unspecified NONE
411994-08-05 11:24PSTYes???USGS-124010.54 Unspecified NONE
401994-08-05 11:21PSTYes???USGS59410.49 Unspecified NONE
391994-08-05 11:16PSTYes???USGS233010.44 Unspecified NONE
381994-08-05 11:13PSTYes???USGS368010.40 Unspecified NONE
371994-08-05 11:10PSTYes???USGS504010.37 Unspecified NONE
361994-08-05 11:07PSTYes???USGS631010.32 Unspecified NONE
351994-08-05 11:03PSTYes???USGS734010.28 Unspecified NONE
341994-08-05 11:00PSTYes???USGS852010.25 Unspecified NONE
331994-08-05 10:57PSTYes???USGS953010.23 Unspecified NONE
321994-08-05 10:54PSTYes???USGS1070010.19 Unspecified NONE
311994-08-05 10:50PSTYes???USGS1200010.16 Unspecified NONE
301994-08-05 10:47PSTYes???USGS1210010.08 Unspecified NONE
291994-08-05 10:44PSTYes???USGS1350010.09 Unspecified NONE
281994-08-05 10:27PSTYes???USGS179009.96 Unspecified NONE
271994-08-05 10:17PSTYes???USGS196009.89 Unspecified NONE
261994-08-05 10:14PSTYes???USGS208009.89 Unspecified NONE
251994-08-05 10:09PSTYes???USGS215009.88 Unspecified NONE
241994-08-05 10:06PSTYes???USGS215009.88 Unspecified NONE
231994-08-05 09:49PSTYes???USGS224009.88 Unspecified NONE
221994-08-05 09:46PSTYes???USGS236009.89 Unspecified NONE
211994-08-05 09:43PSTYes???USGS242009.89 Unspecified NONE
201994-08-05 08:50PSTYes???USGS2510010.18 Unspecified NONE
191994-08-05 08:47PSTYes???USGS2520010.20 Unspecified NONE
181994-08-05 08:44PSTYes???USGS2540010.23 Unspecified NONE
171994-08-05 08:41PSTYes???USGS2540010.26 Unspecified NONE
161994-08-05 08:40PSTYes???USGS237009.90 Unspecified NONE
151994-08-05 07:56PSTYes???USGS2700010.61 Unspecified NONE
141994-08-05 07:53PSTYes???USGS2620010.65 Unspecified NONE
131994-08-05 07:50PSTYes???USGS2690010.67 Unspecified NONE
121994-08-05 07:47PSTYes???USGS2690010.70 Unspecified NONE
111994-08-05 07:43PSTYes???USGS2650010.73 Unspecified NONE
101994-08-04 13:30PSTYes???USGS-2840011.76 Unspecified NONE
91994-08-04 13:23PSTYes???USGS-2720011.72 Unspecified NONE
81994-08-04 13:20PSTYes???USGS-2830011.70 Unspecified NONE
71994-08-04 13:17PSTYes???USGS-2880011.67 Unspecified NONE
61994-08-04 12:26PSTYes???USGS-2720011.74 Unspecified NONE
51994-08-04 12:13PSTYes???USGS-2610011.31 Unspecified NONE
41994-08-04 12:10PSTYes???USGS-2590011.30 Unspecified NONE
31994-08-04 12:06PSTYes???USGS-2520011.28 Unspecified NONE
21994-08-04 12:02PSTYes???USGS-2440011.25 Unspecified NONE
11994-08-04 11:59PSTYes???USGS-2470011.24 Unspecified NONE